                ,  0.290,  0.386,  0.483,  0.580,  0.676,  0.773,  0.869,  0.966,  1.063,  1.159,  1.256,  1.352,  1.449,  1.545,  1.642,  1.739,  1.835,  1.932,  2.028,  2.125,  2.222,  2.318,  2.415,  2.511,  2.608,  2.705,  2.801,  2.898,  2.994,  3.091,  3.188,  3.284,  3.381,  3.477,  3.574,  3.671,  3.767,  3.864,  3.960,  4.057,  4.153,  4.250,  4.347,  4.443,  4.540,  4.636,  4.733,  4.830,  4.926,  5.023,  5.119,  5.216,  5.313,  5.409,  5.506,  5.602,  5.699,  5.796
2001/09/16 00:00,  999.0,   -2.7,  999.0,  999.0,  999.0,   -7.0,  999.0,   -8.1,  999.0,  999.0,  -10.4,  -11.3,   -9.7,  999.0,  999.0,  -14.5,  999.0,  999.0,  999.0,  999.0,  999.0,  999.0,  999.0,  999.0,  999.0,  999.0,  999.0,  999.0,  999.0,  999.0,  999.0,  999.0,  999.0,  999.0,  999.0,  999.0,  999.0,  999.0,  999.0,  999.0,  999.0,  999.0,  999.0,  999.0,  999.0,  999.0,  999.0,  999.0,  999.0,  999.0,  999.0,  999.0,  999.0,  999.0,  999.0,  999.0,  999.0,  999.0
2001/09/16 00:10,  999.0,   -2.3,   -3.8,   -4.8,   -5.4,  999.0,  999.0,  999.0,  999.0,  999.0,  999.0,  999.0,  999.0,  999.0,  999.0,  999.0,  -15.3,  -18.6,  -24.3,  -22.0,  -22.3,  999.0,  -33.6,  -35.8,  -36.1,  999.0,  999.0,  -37.8,  999.0,  999.0,  999.0,  999.0,  -40.4,  -41.0,  999.0,  999.0,  999.0,  -41.7,  -42.1,  999.0,  -41.7,  999.0,  999.0,  999.0,  999.0,  -41.9,  -41.7,  -41.7,  -41.5,  999.0,  999.0,  999.0,  -41.6,  999.0,  999.0,  -41.8,  999.0,  999.0
2001/09/16 00:20,  999.0,   -2.7,   -4.4,   -4.6,   -4.8,   -2.8,   -3.2,  999.0,  999.0,  999.0,  999.0,   -7.9,  999.0,  999.0,  999.0,  999.0,  999.0,  -16.8,  999.0,   -8.0,  -23.9,  -24.8,  -26.5,  -27.7,  -29.4,  -29.4,  -31.6,  999.0,  999.0,  -34.9,  999.0,  -35.8,  -38.1,  999.0,  -40.8,  -40.6,  -41.7,  -41.5,  -42.1,  -41.7,  -42.0,  -41.9,  -42.0,  -41.6,  -42.0,  999.0,  999.0,  -25.4,  -41.3,  -42.2,  -41.8,  999.0,  999.0,  -41.6,  -31.5,  -42.0,  -42.2,  -42.2
2001/09/16 00:30,  999.0,   -3.1,   -3.9,   -4.1,   -5.6,   -4.5,  999.0,  999.0,  999.0,  999.0,  999.0,  999.0,  999.0,  999.0,  999.0,  -14.7,  -17.0,  -20.3,  -21.5,  -23.1,  -23.9,  -25.7,  999.0,  -27.4,  -27.1,  -28.8,  999.0,  -30.8,  -32.5,  -34.4,  -35.2,  -35.4,  -36.0,  999.0,  -38.5,  -40.9,  -41.2,  -41.5,  999.0,  999.0,  -42.1,  -42.0,  -42.0,  -42.0,  -41.8,  -41.8,  -42.0,  -42.1,  999.0,  999.0,  -41.8,  -42.0,  999.0,  -41.9,  -41.9,  -42.7,  -41.9,  999.0
2001/09/16 00:40,  999.0,   -2.8,   -3.9,   -3.6,   -0.1,    1.2,    1.6,  999.0,   -6.5,  999.0,  999.0,  999.0,  999.0,  999.0,  999.0,  -15.1,  -16.4,  -21.5,  999.0,  -25.4,  -27.1,  999.0,  999.0,  999.0,  999.0,  -33.8,  -35.5,  -36.8,  999.0,  -38.7,  999.0,  -38.2,  999.0,  999.0,  999.0,  -41.7,  999.0,  -41.4,  999.0,  -41.7,  -41.4,  -41.6,  -27.7,  -31.1,  999.0,  -27.6,  -41.7,  -41.5,  -42.0,  -42.0,  -31.2,  -27.8,  999.0,  -41.7,  999.0,  -42.2,  999.0,  -41.8
2001/09/16 00:50,  999.0,   -2.4,   -3.6,   -3.9,   -3.7,   -3.2,   -4.0,   -6.2,   -5.7,   -4.8,  999.0,  999.0,  999.0,  999.0,  999.0,  -14.6,  -17.1,  -21.7,  -23.6,  -24.0,  -26.0,  -26.9,  -27.8,  -28.2,  -29.6,  999.0,  -31.9,  -33.2,  -34.0,  -34.8,  -36.8,  -36.8,  -37.9,  -40.0,  -40.5,  -41.3,  -41.5,  -41.2,  -41.4,  -41.6,  -42.0,  999.0,  -41.3,  -41.4,  -41.8,  -41.6,  -42.4,  -42.1,  -42.0,  -41.7,  -42.1,  -41.8,  -41.3,  -41.2,  -41.9,  999.0,  -41.5,  -42.0
2001/09/16 01:00,  999.0,   -2.7,   -4.0,   -5.2,   -2.5,   -5.7,  999.0,  999.0,   -6.0,   -6.3,  999.0,  999.0,  999.0,  999.0,  -12.6,  -14.7,  -17.1,  999.0,  -23.9,  -25.0,  -26.0,  -27.7,  -28.9,  -29.8,  -31.0,  -32.6,  -34.1,  -35.1,  -36.1,  -37.8,  -39.7,  -40.5,  999.0,  -41.5,  -42.3,  999.0,  -42.6,  -41.9,  -41.9,  999.0,  -41.8,  -41.7,  -41.8,  -41.5,  999.0,  -42.0,  -42.4,  -41.9,  -41.7,  -42.2,  -41.9,  -41.9,  -41.8,  999.0,  -42.6,  -42.4,  -41.8,  -42.2
2001/09/16 01:10,  999.0,   -3.0,   -3.1,   -4.0,   -5.3,   -4.8,   -5.0,   -6.1,   -5.6,  999.0,  999.0,  999.0,  999.0,  999.0,  999.0,  -15.0,  999.0,  999.0,  999.0,  999.0,  999.0,  999.0,  999.0,  999.0,  999.0,  999.0,  999.0,  999.0,  999.0,  999.0,  999.0,  999.0,  999.0,  999.0,  999.0,  999.0,  999.0,  999.0,  -42.2,  999.0,  -41.7,  999.0,  999.0,  999.0,  999.0,  999.0,  999.0,  -41.8,  999.0,  999.0,  999.0,  999.0,  -41.9,  999.0,  -41.7,  999.0,  999.0,  999.0
2001/09/16 01:20,  999.0,   -0.9,   -2.9,   -0.9,   -4.1,   -6.1,   -5.1,   -5.9,   -5.9,   -5.5,  999.0,  999.0,  999.0,  999.0,  -13.6,  -15.2,  -18.7,  999.0,  999.0,  999.0,  999.0,  999.0,  999.0,  999.0,  999.0,  999.0,  999.0,  999.0,  999.0,  999.0,  999.0,  999.0,  999.0,  999.0,  999.0,  999.0,  999.0,  999.0,  999.0,  999.0,  999.0,  999.0,  999.0,  999.0,  999.0,  999.0,  999.0,  999.0,  999.0,  999.0,  999.0,  999.0,  999.0,  999.0,  999.0,  999.0,  999.0,  999.0
2001/09/16 01:30,  999.0,   -2.7,   -2.9,   -4.1,   -4.4,   -5.4,   -4.8,   -5.6,   -6.9,  999.0,  999.0,  999.0,  999.0,  999.0,  -13.3,  -14.9,  999.0,  -21.0,  999.0,  999.0,  999.0,  999.0,  999.0,  999.0,  999.0,  999.0,  999.0,  999.0,  999.0,  999.0,  -34.0,  -34.9,  999.0,  -36.7,  999.0,  999.0,  999.0,  999.0,  999.0,  -41.1,  -40.9,  -41.9,  -42.0,  -41.1,  999.0,  999.0,  999.0,  -41.4,  999.0,  -41.6,  999.0,  -41.4,  999.0,  999.0,  -41.1,  999.0,  -41.8,  -41.8
2001/09/16 01:40,  999.0,   -0.2,   -1.8,   -3.2,   -6.1,   -4.1,   -4.3,   -4.8,   -6.3,  999.0,  999.0,  999.0,  999.0,  999.0,  -14.0,  -18.4,  999.0,  999.0,  -22.9,  -26.2,  -28.7,  -28.2,  -28.6,  -28.4,  -29.4,  999.0,  -29.5,  -35.0,  -37.2,  -32.6,  -38.1,  -37.4,  999.0,  -37.4,  -39.5,  -38.9,  -40.4,  -40.9,  -41.7,  -41.8,  -42.2,  -42.0,  -41.5,  -41.9,  -42.0,  999.0,  -41.7,  -42.0,  -41.9,  -42.0,  -42.4,  999.0,  -41.7,  -42.0,  -41.1,  -42.3,  -41.5,  -41.8
2001/09/16 01:50,  999.0,   -0.5,   -1.7,   -4.3,   -3.1,   -4.7,   -3.6,   -5.4,   -5.5,  999.0,  999.0,  999.0,  999.0,  999.0,  999.0,  999.0,  999.0,  999.0,  999.0,  -22.4,  -23.8,  -26.2,  -25.2,  -26.1,  -27.6,  -27.8,  -29.0,  -29.3,  -30.5,  -30.7,  -31.9,  -31.4,  -33.4,  999.0,  -35.4,  -36.8,  -35.3,  999.0,  -38.1,  -39.7,  -39.9,  999.0,  -40.4,  -41.8,  -41.3,  -41.5,  -41.7,  -41.5,  -41.7,  -41.7,  -41.9,  -41.8,  -42.0,  -41.7,  -42.3,  999.0,  999.0,  -41.8
2001/09/16 02:00,  999.0,   -2.0,   -2.0,   -4.3,   -2.1,  999.0,   -4.2,   -4.9,   -7.1,  999.0,  999.0,  999.0,  999.0,  999.0,  999.0,  999.0,  999.0,  999.0,  -20.9,  -22.7,  999.0,  -24.6,  -25.0,  999.0,  -27.1,  -28.8,  999.0,  -29.9,  -31.1,  -31.6,  999.0,  -33.7,  -35.0,  999.0,  -38.2,  -37.7,  -38.6,  -39.0,  999.0,  -41.9,  -41.4,  -41.7,  999.0,  -41.0,  -42.4,  -41.7,  -41.3,  -41.5,  -41.3,  -41.8,  -42.0,  -41.9,  999.0,  -41.9,  -41.7,  999.0,  999.0,  -42.2
2001/09/16 02:10,  999.0,   -1.3,  999.0,   -3.1,   -3.3,   -3.0,   -3.6,   -4.4,   -5.5,   -7.4,   -4.0,  999.0,  999.0,  999.0,  999.0,  999.0,  999.0,  999.0,  999.0,  -23.8,  999.0,  999.0,  -29.5,  -31.6,  -28.9,  -30.7,  -34.3,  -34.9,  -35.4,  999.0,  -38.3,  -39.5,  -38.8,  -39.3,  -41.2,  -41.1,  -27.7,  -41.8,  999.0,  999.0,  -42.3,  999.0,  -41.6,  -36.4,  -20.6,  -41.9,  -33.7,  -42.1,  999.0,  -42.4,  -27.7,  -35.1,  -42.2,  -42.3,  -42.0,  -42.2,  999.0,  -41.5
2001/09/16 02:20,  999.0,   -1.2,   -1.5,   -3.3,   -5.5,  999.0,  999.0,   -7.4,   -6.6,  999.0,  999.0,  999.0,  999.0,  999.0,  999.0,  999.0,  999.0,  999.0,  -18.3,  -17.5,  -18.4,  999.0,  -16.1,  -36.1,  -28.5,  -29.9,  -41.6,  -30.9,  -27.8,  999.0,  -42.2,  -41.8,  -41.9,  -33.5,  999.0,  -28.2,  -41.4,  -41.8,  -28.0,  -28.3,  -31.4,  -33.9,  -21.3,  -28.2,  -28.3,  -42.0,  -21.8,  -41.4,  -41.5,  -27.8,  -28.0,  -31.7,  -41.4,  999.0,  999.0,  -31.9,  -41.6,  999.0
2001/09/16 02:30,  999.0,   -0.8,   -2.8,   -4.9,   -5.9,   -3.4,  999.0,   -5.1,   -4.4,  999.0,  999.0,  -14.8,  999.0,  999.0,  999.0,  999.0,  999.0,  -19.6,  999.0,  -22.2,  999.0,  999.0,  999.0,  999.0,  999.0,  999.0,  999.0,  999.0,  999.0,  999.0,  999.0,  999.0,  999.0,  999.0,  999.0,  999.0,  999.0,  999.0,  999.0,  999.0,  999.0,  999.0,  999.0,  999.0,  999.0,  999.0,  999.0,  999.0,  999.0,  999.0,  999.0,  999.0,  999.0,  999.0,  999.0,  999.0,  999.0,  999.0
2001/09/16 02:40,  999.0,   -0.6,   -1.1,   -2.5,   -3.1,   -2.9,   -3.3,   -3.2,   -0.7,  -20.3,  -20.3,  999.0,  999.0,  999.0,  999.0,  999.0,  999.0,  999.0,  -19.8,  -20.0,  -18.5,  -17.7,  -16.9,  -16.6,  -16.0,  -15.1,  -13.7,  -12.7,  -12.5,  999.0,  -11.1,  -10.7,   -9.3,  999.0,  999.0,  999.0,  999.0,   -5.9,   -6.5,  999.0,  999.0,   -3.4,   -2.5,   -1.6,   -0.9,   -1.1,   -0.8,  999.0,   -0.9,   -1.1,   -0.9,   -0.5,  999.0,   -0.5,   -0.6,  999.0,   -0.7,  999.0
2001/09/16 02:50,  999.0,   -1.2,   -0.8,    0.3,  999.0,   -1.8,   -4.8,   -6.5,  999.0,  999.0,  999.0,  999.0,  999.0,  999.0,  999.0,  999.0,  -19.9,  999.0,  999.0,  -10.8,  999.0,  999.0,  -15.8,  -14.7,  -15.5,  -15.3,  999.0,  999.0,   -9.7,   -6.8,   -9.8,  -10.0,  999.0,   -8.2,  999.0,   -3.1,  999.0,   -3.5,   -2.4,  999.0,  999.0,  999.0,   -0.5,   -0.1,  999.0,  999.0,   -0.9,   -0.5,  999.0,   -0.9,  999.0,   -0.5,   -0.7,  999.0,  999.0,  999.0,   -0.5,  999.0
2001/09/16 03:00,  999.0,    0.0,    0.7,    0.2,   -0.1,   -2.8,   -3.9,   -2.7,    0.2,   -0.1,  999.0,  999.0,  999.0,  999.0,  999.0,  999.0,  999.0,  999.0,  999.0,  999.0,  999.0,  999.0,  999.0,  999.0,  999.0,  999.0,  999.0,  999.0,  999.0,  999.0,  999.0,  999.0,  999.0,   -1.3,  999.0,  999.0,  999.0,   20.3,  999.0,  999.0,  999.0,   20.9,  999.0,  999.0,  999.0,  999.0,   20.3,  999.0,  999.0,  999.0,  999.0,  999.0,  999.0,  999.0,  999.0,  999.0,  999.0,   20.6
2001/09/16 03:10,  999.0,    1.0,    0.1,   -1.1,   -1.3,   -2.1,   -2.8,   -4.7,   -6.9,  999.0,   -2.2,  999.0,  -18.7,  999.0,  999.0,  -13.5,  -15.2,  999.0,  -19.9,  999.0,  999.0,  999.0,  999.0,  999.0,  999.0,  999.0,  999.0,  999.0,  999.0,  999.0,  999.0,  999.0,  999.0,  999.0,  999.0,  999.0,  999.0,  999.0,  999.0,  999.0,  999.0,  999.0,  999.0,  999.0,  999.0,  999.0,  999.0,  999.0,  999.0,  999.0,  999.0,  999.0,  999.0,  999.0,  999.0,  999.0,  999.0,  999.0
2001/09/16 03:20,  999.0,    0.2,   -1.5,   -1.8,   -1.8,   -3.3,   -3.8,   -4.3,   -4.8,  999.0,   -7.2,  999.0,  999.0,  999.0,  999.0,  -13.1,  -15.5,  -18.0,  999.0,  999.0,  999.0,  999.0,  999.0,  999.0,  999.0,  999.0,  999.0,  999.0,  999.0,  999.0,  999.0,  999.0,  999.0,  999.0,  999.0,  999.0,  999.0,  999.0,  999.0,  999.0,  999.0,  999.0,  999.0,  999.0,  999.0,  999.0,  999.0,  999.0,  999.0,  999.0,  999.0,  999.0,  999.0,  999.0,  999.0,  999.0,  999.0,  999.0
2001/09/16 03:30,  999.0,    1.7,   -0.3,   -0.8,   -1.2,   -2.2,   -3.1,   -3.8,   -5.0,  999.0,  -14.3,  999.0,  999.0,  999.0,  999.0,  -15.0,  -15.7,  -17.4,  -20.0,  -21.7,  999.0,  999.0,  999.0,  999.0,  999.0,  999.0,  999.0,  999.0,  999.0,  999.0,  999.0,  999.0,  999.0,  999.0,  999.0,  999.0,  999.0,  999.0,  999.0,  999.0,  999.0,  999.0,  999.0,  999.0,  999.0,  999.0,  999.0,  999.0,  999.0,  999.0,  999.0,  999.0,  999.0,  999.0,  999.0,  999.0,  999.0,  999.0
2001/09/16 03:40,  999.0,    1.0,   -2.7,   -2.2,   -0.1,   -1.2,   -3.5,   -5.2,   -5.8,  999.0,  999.0,  999.0,  999.0,  999.0,  -12.9,  -14.9,  -17.4,  -20.7,  -22.9,  -25.4,  -27.5,  -29.1,  999.0,  999.0,  -27.9,  999.0,  -27.0,  -26.3,  -25.9,  999.0,  999.0,  999.0,  999.0,  -23.0,  999.0,  999.0,  999.0,  -21.7,  999.0,  999.0,  999.0,  999.0,  999.0,  999.0,  999.0,  -21.3,  999.0,  999.0,  999.0,  999.0,  999.0,  999.0,  999.0,  999.0,  999.0,  999.0,  999.0,  999.0
2001/09/16 03:50,  999.0,    1.1,   -1.0,    0.2,   -1.5,   -2.9,   -3.4,   -4.8,   -6.9,  999.0,  999.0,  999.0,  999.0,  999.0,  -11.8,  -14.4,  -17.5,  -19.8,  -18.7,  -17.6,  999.0,  -16.0,  -14.4,  -13.2,  999.0,  -11.4,  -10.9,   -9.3,   -8.8,   -7.0,   -5.8,   -5.0,  999.0,   -2.4,   -1.2,   -1.5,  999.0,   -0.3,  999.0,    0.1,   -0.8,   -0.2,   -0.9,   -0.8,   -0.9,   -0.7,  999.0,   -1.0,  999.0,   -0.7,  999.0,   -0.2,   -1.2,   -0.9,   -1.0,   -0.9,   -0.9,   -0.6
2001/09/16 04:00,  999.0,    0.5,   -1.2,   -0.9,   -0.9,   -1.3,   -3.3,   -4.8,   -6.7,  999.0,  999.0,  999.0,  999.0,  999.0,  -13.3,  -14.6,  -16.9,  -19.1,  -19.5,  -17.1,  -17.6,  -13.7,  -13.6,  -12.5,   -9.5,   -9.7,   -8.3,   -6.6,  999.0,   -4.6,   -4.9,   -1.6,   -0.9,   -0.4,   -1.6,   -0.2,   -0.8,   -0.8,   -0.9,   -1.2,   -0.9,   -0.9,   -1.5,   -0.8,  999.0,   -0.6,   -0.6,  999.0,   -0.5,   -0.6,   -1.0,   -0.3,   -0.7,   -0.7,   -1.2,   -0.8,   -0.3,   -0.5
2001/09/16 04:10,  999.0,    0.7,    1.3,   -0.1,    0.0,   -2.6,   -2.6,   -3.6,   -6.4,  999.0,  999.0,  999.0,  999.0,  -12.3,  -13.6,  -15.8,  -17.0,  -17.7,  -16.2,  -14.6,  -11.9,  -10.5,   -8.7,   -8.6,  999.0,   -7.5,   -2.5,   -2.0,   -3.9,  999.0,   -0.9,   -0.9,   -1.3,   -0.8,   -0.8,   -1.1,   -0.6,   -0.5,   -0.6,   -0.5,   -0.8,  999.0,   -0.7,   -1.1,   -1.0,   -0.8,   -0.4,   -0.1,   -0.6,   -0.7,   -0.2,   -0.7,   -1.0,   -0.7,   -0.7,   -0.7,   -0.7,  999.0
2001/09/16 04:20,  999.0,    1.4,    0.7,    0.5,   -0.2,   -1.0,   -2.4,   -4.5,   -5.4,  -14.0,  999.0,  999.0,  999.0,  -12.7,  -14.9,  -16.8,  -20.2,  -18.2,  -17.2,  -16.0,   -9.8,  -17.7,   -4.9,  -11.4,  999.0,  999.0,   -0.6,   -0.1,   20.5,  -18.8,  -13.6,   20.5,   10.8,  999.0,  -18.6,  999.0,  999.0,  999.0,  -14.0,   -0.2,  -21.1,   -0.1,   -0.0,   -6.5,  999.0,   -1.1,   -7.1,  999.0,  -21.3,  999.0,  -16.0,    0.2,   -1.0,   -0.7,    0.0,    0.9,    0.6,    0.9
2001/09/16 04:30,  999.0,    2.3,   -0.0,   -0.1,   -1.8,   -2.8,   -2.7,   -3.2,   -6.0,  999.0,  999.0,  999.0,  -10.2,  -12.0,  -13.9,  -18.3,  999.0,  -21.9,  -23.7,  -25.3,  -25.0,  -26.6,  999.0,  -29.4,  -29.4,  -32.4,  999.0,  -35.0,  -34.3,  -35.0,  -37.8,  999.0,  999.0,  -40.1,  -39.4,  -41.3,  -41.8,  999.0,  -41.7,  -41.7,  -41.5,  999.0,  999.0,  -41.7,  -42.3,  -42.4,  -41.8,  -42.0,  -41.3,  999.0,  -41.9,  -42.3,  -41.8,  -42.1,  -41.6,  -42.3,  -42.2,  999.0
2001/09/16 04:40,  999.0,    2.3,   -0.3,   -1.7,   -1.3,   -1.7,   -3.2,   -5.3,   -7.9,  999.0,  999.0,   -8.7,  -10.7,  -12.1,  -13.3,  -15.5,  -17.3,  -20.2,  -22.3,  999.0,  -25.3,  -25.5,  -26.4,  -26.6,  999.0,  -29.5,  -30.8,  -31.9,  -33.1,  999.0,  999.0,  999.0,  -37.1,  -38.1,  999.0,  -40.1,  -41.4,  999.0,  999.0,  -41.9,  -42.4,  -42.2,  -41.8,  999.0,  -42.0,  -42.6,  -42.0,  -42.0,  999.0,  -41.6,  -42.1,  -42.0,  -41.7,  -41.6,  -41.8,  -41.5,  999.0,  -42.2
2001/09/16 04:50,  999.0,    2.1,    2.0,   -0.8,    0.2,   -1.3,   -2.9,   -4.5,  999.0,  999.0,   -8.0,  -10.0,  -11.7,  -13.1,  -14.2,  -15.6,  -17.9,  -20.7,  -22.6,  999.0,  -25.1,  -25.4,  -26.8,  -27.2,  -28.7,  -29.4,  -30.3,  -32.0,  -32.9,  -33.7,  -34.5,  -36.1,  -37.4,  999.0,  999.0,  -39.1,  -39.8,  -40.8,  -41.5,  -41.4,  -41.8,  -41.6,  -42.2,  999.0,  999.0,  -42.3,  -42.0,  -41.7,  -41.9,  -41.9,  999.0,  -42.0,  999.0,  -41.6,  -41.9,  -41.7,  999.0,  -41.7
2001/09/16 05:00,  999.0,    1.7,    1.7,    1.0,   -0.8,   -2.5,   -2.9,   -5.2,  999.0,  999.0,   -9.4,  -10.6,  -12.0,  -13.5,  -15.1,  -19.8,  -21.2,  -23.0,  -22.1,  -23.8,  -22.5,  -26.0,  -27.3,  -26.6,  999.0,  -29.5,  999.0,  -33.5,  -35.8,  -36.1,  -38.6,  -38.3,  -38.7,  -41.0,  -41.4,  -41.8,  -41.4,  -41.5,  -42.2,  -41.9,  -42.0,  -41.8,  -42.2,  -42.5,  -42.7,  -42.1,  999.0,  -42.3,  999.0,  -42.8,  -42.2,  -41.7,  -41.7,  999.0,  -41.9,  -41.8,  -41.2,  -42.0
2001/09/16 05:10,  999.0,    1.5,    0.8,   -0.6,   -1.5,   -0.5,   -2.4,   -5.2,   -4.1,  999.0,  999.0,  -11.1,  -12.1,  -14.2,  999.0,  -21.3,  -21.4,  -22.3,  -23.7,  999.0,  -26.0,  -28.4,  -29.0,  -29.9,  -31.9,  999.0,  -32.8,  -35.5,  -36.2,  999.0,  -37.5,  999.0,  999.0,  999.0,  -41.4,  -41.8,  -42.0,  -41.9,  -41.8,  -41.7,  -41.9,  -41.6,  -41.6,  999.0,  -42.1,  -42.4,  -41.8,  -41.5,  -41.3,  -41.8,  -41.9,  -41.9,  -41.5,  -41.9,  -41.8,  -42.0,  -42.2,  -41.8
2001/09/16 05:20,  999.0,    1.6,    0.5,   -0.5,   -1.5,   -1.3,   -2.5,   -3.8,   -6.6,  999.0,  999.0,   -9.0,  -11.5,  -13.9,  999.0,  -21.9,  999.0,  -22.8,  -23.5,  -24.6,  -26.5,  999.0,  999.0,  -28.9,  -30.6,  999.0,  -35.2,  -35.0,  -36.3,  -36.0,  -38.2,  -39.5,  -39.9,  -40.6,  -41.7,  -41.2,  -41.7,  -42.1,  999.0,  -42.4,  999.0,  -42.5,  -42.5,  -42.5,  999.0,  -42.9,  -42.5,  999.0,  -42.5,  999.0,  -42.8,  999.0,  999.0,  -42.9,  -42.7,  -43.0,  999.0,  999.0
2001/09/16 05:30,  999.0,    1.8,    1.4,    0.8,   -1.2,   -2.3,   -3.1,   -3.8,   -5.2,  999.0,  999.0,   -8.5,  -10.8,  -12.8,  -15.6,  999.0,  999.0,  999.0,  999.0,  -24.8,  -26.4,  -26.5,  999.0,  -29.0,  999.0,  -32.1,  -33.1,  999.0,  -35.6,  -36.9,  -36.0,  -38.5,  999.0,  -39.6,  999.0,  -41.8,  999.0,  -42.2,  -42.3,  -42.3,  999.0,  999.0,  -42.1,  999.0,  -41.9,  999.0,  999.0,  -42.1,  999.0,  -41.7,  999.0,  -42.1,  -42.2,  -42.4,  999.0,  -41.8,  999.0,  -42.0
2001/09/16 05:40,  999.0,    5.8,    3.1,    1.6,   -0.1,   -1.2,   -3.0,   -4.0,  999.0,  999.0,  999.0,   -8.9,  -10.8,  -13.0,  -15.2,  -18.8,  -21.8,  -22.7,  -22.9,  999.0,  -26.6,  -27.4,  -28.1,  -29.0,  -31.2,  -31.5,  -32.6,  -33.5,  -34.7,  -35.9,  999.0,  -38.2,  -38.1,  -40.2,  -41.1,  999.0,  999.0,  -41.9,  -41.8,  -41.9,  -42.3,  -41.9,  -42.5,  -42.1,  -42.5,  -42.2,  -41.8,  -42.0,  -42.2,  -42.3,  -42.0,  -42.1,  999.0,  -42.7,  -42.3,  -41.9,  -42.1,  -41.9
2001/09/16 05:50,  999.0,  999.0,    3.3,    2.5,    0.6,   -1.3,   -2.8,   -3.8,  999.0,   -4.6,  999.0,   -8.8,  -10.7,  -12.8,  -14.7,  -16.6,  -18.1,  -21.8,  -22.6,  999.0,  -26.5,  -28.0,  -27.4,  -30.5,  -32.0,  -34.5,  -31.8,  -37.3,  999.0,  -34.3,  -39.7,  -37.0,  -39.8,  -40.3,  -40.8,  -41.5,  -42.2,  -41.7,  999.0,  -41.9,  -41.9,  -42.1,  -41.6,  -41.6,  -41.8,  -41.8,  -41.6,  -41.7,  -41.7,  999.0,  -42.0,  -41.7,  -41.8,  -41.8,  -42.1,  -41.7,  -41.7,  -41.7
2001/09/16 06:00,  999.0,    1.5,    1.4,    2.1,    1.2,   -1.1,   -3.2,  999.0,   -6.6,   -4.7,   -7.3,  999.0,  -11.1,  -12.8,  -14.4,  -15.8,  -17.4,  -22.2,  -23.1,  -24.5,  999.0,  999.0,  -28.0,  -28.4,  -30.5,  999.0,  999.0,  -33.9,  999.0,  -35.7,  -35.9,  -37.4,  -38.6,  -38.8,  -41.3,  -41.3,  -41.7,  999.0,  -41.4,  -41.7,  999.0,  -41.8,  -41.9,  999.0,  999.0,  -42.2,  -41.8,  -42.0,  -42.0,  -41.3,  -41.5,  -41.3,  999.0,  -41.4,  -41.4,  -42.0,  -41.4,  -42.1
2001/09/16 06:10,  999.0,    6.1,    4.3,    2.2,    0.4,   -1.0,   -2.3,   -5.0,  999.0,  999.0,  999.0,  999.0,  -10.4,  -11.6,  999.0,  -17.6,  -18.6,  -20.4,  -21.8,  999.0,  -22.0,  -25.4,  -18.7,  -22.9,  999.0,  -30.8,  999.0,  999.0,  -32.5,  -33.5,  999.0,  -36.7,  -39.1,  -39.3,  -40.0,  -41.2,  -42.2,  999.0,  -41.9,  999.0,  -42.0,  -42.0,  999.0,  -42.1,  999.0,  999.0,  -41.7,  -41.9,  -41.6,  999.0,  -41.9,  999.0,  -42.1,  -41.9,  -41.8,  -41.3,  999.0,  999.0
2001/09/16 06:20,  999.0,   -0.5,    3.0,    1.5,    4.4,   -0.1,   -2.6,   -4.6,  999.0,  999.0,  999.0,  999.0,  -10.6,  -12.0,  -13.3,  -17.3,  -15.9,  -20.3,  -23.2,  -24.3,  -25.9,  -26.1,  999.0,  -24.1,  -30.2,  999.0,  -32.4,  -34.2,  999.0,  -36.1,  -35.9,  -38.3,  -39.1,  999.0,  -41.0,  -42.1,  -42.1,  -41.6,  -41.4,  -41.9,  -41.7,  999.0,  -41.8,  -41.4,  999.0,  999.0,  999.0,  -41.9,  -41.9,  -42.0,  -41.7,  -41.8,  -41.9,  -41.7,  -42.7,  -42.1,  -42.0,  -42.1
2001/09/16 06:30,  999.0,    2.6,    2.5,    2.2,    1.3,   -1.2,   -2.2,   -4.2,  999.0,  999.0,   -3.7,   -7.2,   -9.6,  -12.1,  -14.0,  -15.9,  -19.4,  -20.7,  -22.9,  999.0,  -24.8,  -25.4,  -20.4,  -23.4,  -27.0,  -29.8,  -31.3,  999.0,  -34.4,  -34.1,  -36.4,  -37.7,  -39.4,  999.0,  -40.5,  999.0,  -42.3,  -42.2,  -42.0,  -42.0,  999.0,  999.0,  -42.4,  999.0,  -42.2,  -42.6,  -42.8,  -42.7,  999.0,  -41.9,  999.0,  -41.9,  -41.1,  999.0,  999.0,  999.0,  -42.0,  999.0
2001/09/16 06:40,  999.0,    4.8,    4.7,    2.5,    0.5,   -0.2,   -1.4,   -4.1,  999.0,  999.0,   -8.7,   -8.7,  -10.8,  -12.4,  -14.5,  -17.3,  -19.7,  -22.8,  -23.4,  999.0,  -25.7,  -26.5,  -28.1,  -26.3,  -26.5,  -29.0,  -31.8,  -33.8,  -34.1,  -36.7,  -35.9,  -37.1,  -35.6,  999.0,  -40.7,  999.0,  -41.8,  -40.5,  -42.0,  -41.4,  -41.7,  999.0,  -42.0,  -42.0,  -42.1,  -42.6,  -42.3,  999.0,  -41.8,  999.0,  -42.5,  -42.5,  -42.5,  -42.5,  -43.3,  -42.2,  -42.4,  -42.7
2001/09/16 06:50,  999.0,    1.9,    1.2,    1.3,   -0.2,   -1.4,   -2.5,   -3.9,  999.0,  999.0,  999.0,   -9.5,  -11.0,  -12.8,  -14.9,  -17.9,  -23.6,  -24.0,  -24.7,  -25.4,  -26.8,  -27.3,  999.0,  -30.0,  -31.0,  -32.5,  -32.4,  -33.9,  999.0,  -36.3,  -36.7,  -38.6,  999.0,  -40.2,  -40.9,  -41.7,  -42.4,  -42.2,  -42.5,  999.0,  -42.7,  -42.7,  -41.7,  -41.7,  -42.0,  -42.1,  -42.4,  -42.0,  -42.0,  999.0,  999.0,  -42.3,  -42.3,  -42.0,  -42.1,  -42.1,  999.0,  -42.0
2001/09/16 07:00,  999.0,    2.1,    2.8,    2.0,   -0.1,   -1.5,   -2.7,   -6.5,  999.0,  999.0,  999.0,   -8.6,  -11.2,  -12.0,  -14.0,  -17.0,  999.0,  -21.4,  -23.4,  -24.7,  -26.8,  -26.8,  -28.2,  999.0,  -30.8,  -31.5,  -33.1,  999.0,  -35.0,  -35.5,  -37.1,  999.0,  -39.7,  -40.5,  999.0,  -41.5,  -41.7,  999.0,  -41.9,  -42.3,  999.0,  -41.6,  -42.0,  -42.3,  -42.0,  999.0,  -42.3,  -42.2,  -41.9,  -42.2,  999.0,  -41.8,  -41.8,  -42.1,  -42.2,  999.0,  -42.2,  -42.2
2001/09/16 07:10,  999.0,    2.2,    3.1,    2.4,    0.5,   -0.8,   -2.3,  999.0,  999.0,  999.0,  999.0,  999.0,   -9.9,  -11.3,  -13.5,  -15.2,  999.0,  -17.3,  -21.2,  -23.3,  -23.8,  999.0,  -26.3,  -28.7,  -28.3,  999.0,  -30.3,  -32.6,  -32.8,  999.0,  -35.6,  -34.4,  999.0,  -38.9,  -38.9,  999.0,  -40.1,  999.0,  -41.7,  -40.8,  -41.6,  -41.6,  -41.5,  -41.6,  -42.0,  999.0,  -41.5,  -41.8,  -41.2,  -41.8,  -41.6,  999.0,  -42.1,  999.0,  999.0,  -42.2,  -42.1,  -42.6
2001/09/16 07:20,  999.0,    2.2,    2.6,    1.2,    0.2,   -1.0,   -2.0,  999.0,  999.0,  999.0,  999.0,   -9.1,  -10.5,  -12.8,  -14.5,  -16.9,  -19.2,  -20.2,  -22.0,  -21.4,  -25.0,  -26.1,  -27.1,  -27.5,  -28.4,  -29.0,  -30.0,  -30.8,  -33.0,  999.0,  -34.0,  999.0,  -34.6,  -37.8,  999.0,  -38.4,  -41.0,  -41.4,  -40.4,  -41.7,  -42.0,  -41.5,  999.0,  999.0,  -42.1,  999.0,  -42.0,  -41.9,  -41.9,  -41.6,  -41.3,  -42.3,  999.0,  -41.6,  -41.6,  999.0,  -41.6,  -42.1
2001/09/16 07:30,  999.0,    5.1,    1.6,    0.8,    0.1,   -0.3,   -2.0,  999.0,  999.0,  999.0,  999.0,   -8.9,  -11.3,  -13.4,  -17.4,  999.0,  -20.6,  -20.6,  -22.3,  -23.3,  -23.4,  -26.0,  -25.9,  -27.1,  -28.2,  -29.2,  -29.6,  -32.2,  -32.2,  -34.6,  -34.4,  -36.5,  -36.9,  -38.3,  -38.9,  -40.2,  999.0,  -41.7,  -41.3,  999.0,  999.0,  -41.4,  -41.5,  999.0,  -41.9,  -41.8,  999.0,  999.0,  -42.0,  -41.6,  -41.6,  -41.7,  -41.9,  999.0,  -41.6,  -41.9,  -41.8,  999.0
2001/09/16 07:40,  999.0,    4.0,    2.0,    1.6,    0.3,   -1.7,   -3.4,  999.0,  999.0,  999.0,  999.0,  -10.4,  -11.8,  -14.2,  -15.4,  -21.7,  -22.1,  -23.2,  -25.9,  999.0,  -26.8,  -25.9,  -31.0,  -27.6,  -31.1,  -32.0,  -30.8,  -34.7,  999.0,  999.0,  -37.2,  -40.2,  -39.6,  -40.3,  -40.0,  999.0,  -40.6,  -41.2,  -41.8,  -41.9,  999.0,  999.0,  -41.9,  -42.0,  -41.7,  999.0,  -42.3,  -41.7,  -41.8,  -42.1,  -41.7,  -41.7,  999.0,  -41.9,  -41.6,  -41.9,  -41.9,  -41.7
2001/09/16 07:50,  999.0,    4.4,    2.2,    1.6,    0.2,   -1.6,   -3.8,  999.0,  999.0,  999.0,   -8.9,  -10.0,  -12.9,  -14.9,  999.0,  -21.4,  -21.0,  -21.3,  -21.8,  -23.3,  999.0,  -26.2,  999.0,  -27.2,  -28.4,  -29.3,  -32.1,  -33.2,  -32.3,  -34.7,  999.0,  -37.2,  -37.5,  -38.2,  -39.5,  -40.4,  -41.4,  -41.6,  -41.0,  -41.8,  999.0,  -42.0,  -41.9,  999.0,  -41.9,  -41.7,  -41.7,  -41.9,  -42.0,  -41.9,  -41.7,  -42.6,  -41.6,  -41.4,  -41.6,  -41.9,  -41.9,  -41.9
2001/09/16 08:00,  999.0,    4.8,    2.2,    1.6,    1.0,   -2.1,   -3.7,  999.0,  999.0,  999.0,   -8.5,   -9.9,  -11.5,  999.0,  -15.4,  -21.6,  -21.3,  -22.6,  -23.2,  -24.2,  -25.2,  999.0,  -26.7,  -28.4,  -29.3,  -30.4,  -32.5,  -32.7,  -33.6,  -34.2,  -36.4,  -37.8,  -37.6,  -38.9,  -40.5,  -40.3,  -41.2,  -42.0,  -41.6,  999.0,  -42.2,  -41.9,  -41.7,  -41.6,  999.0,  -42.0,  -41.6,  -41.6,  -41.9,  -41.9,  -41.5,  -41.6,  -41.7,  -41.6,  999.0,  -41.4,  999.0,  -41.3
2001/09/16 08:10,  999.0,    4.6,    1.4,    1.0,    0.4,   -2.0,   -4.0,  999.0,  999.0,   -6.6,   -8.4,  -10.0,  -11.7,  -13.3,  -16.3,  -18.2,  -21.0,  -21.2,  -22.4,  -24.0,  -23.7,  -26.1,  999.0,  -27.0,  -28.7,  -30.4,  -30.9,  -32.3,  -32.7,  -34.3,  -36.7,  999.0,  -37.3,  -37.7,  -39.7,  -40.3,  -41.4,  -41.1,  999.0,  -41.4,  -41.9,  -41.5,  999.0,  -41.5,  -41.4,  -41.4,  -41.5,  999.0,  -41.6,  -41.8,  -41.7,  -41.6,  -41.5,  -41.5,  -41.4,  999.0,  999.0,  -42.3
2001/09/16 08:20,  999.0,    3.7,    2.2,    0.2,   -1.1,   -4.4,   -5.8,   -6.2,  999.0,   -7.1,   -8.0,   -9.6,  -11.9,  -13.1,  -15.1,  -17.4,  -20.8,  -21.5,  -22.2,  -23.3,  -23.8,  -25.3,  -26.8,  -26.9,  -28.4,  -29.1,  -30.1,  999.0,  -31.5,  -33.8,  -34.9,  -35.1,  999.0,  -35.8,  -37.9,  -39.1,  -41.5,  999.0,  -41.1,  999.0,  -41.4,  999.0,  -41.7,  -41.4,  -36.5,  999.0,  -37.5,  -42.1,  -41.5,  -33.1,  -41.4,  999.0,  -41.7,  -41.9,  -36.1,  -41.4,  -41.4,  -41.6
2001/09/16 08:30,  999.0,    3.7,    3.3,    0.5,   -0.6,   -3.9,   -5.3,  999.0,   -6.0,   -6.5,   -7.9,   -9.5,  -11.5,  -12.7,  -13.7,  -17.0,  -21.5,  -22.7,  -22.3,  -23.7,  -27.0,  -26.5,  -27.4,  999.0,  -30.0,  -30.1,  -31.6,  -32.9,  -34.0,  -35.9,  -37.2,  -37.7,  -38.5,  -39.3,  -41.6,  -41.4,  999.0,  -41.5,  -41.8,  -41.9,  -41.7,  -41.9,  -41.2,  -41.9,  999.0,  -41.9,  999.0,  -41.8,  -41.4,  -41.6,  -41.8,  -41.7,  -41.4,  999.0,  -41.3,  999.0,  -41.6,  -41.6
2001/09/16 08:40,  999.0,  999.0,    3.2,    2.3,   -0.8,   -3.2,   -5.2,   -6.2,   -6.6,   -6.8,   -6.9,   -9.5,  -10.8,  -12.6,  -14.2,  -14.7,  -17.0,  999.0,  -22.6,  -21.9,  -23.8,  -25.3,  -25.7,  -27.3,  -28.0,  -29.3,  -29.5,  -30.9,  -31.7,  -33.1,  -34.5,  999.0,  -35.8,  -35.9,  -36.7,  -38.5,  -37.5,  -39.6,  -39.5,  999.0,  -41.3,  -40.7,  -41.7,  -41.7,  -41.2,  999.0,  -41.6,  -42.0,  999.0,  -41.7,  -41.8,  -41.9,  -41.8,  999.0,  -42.0,  -42.0,  999.0,  -41.6
2001/09/16 08:50,  999.0,    2.2,    2.3,    2.1,   -0.5,   -2.8,   -4.5,   -6.7,  999.0,  999.0,  999.0,  -10.3,  -11.3,  -13.2,  -13.8,  -14.9,  -17.9,  -20.5,  -22.2,  -23.0,  -24.0,  -24.4,  -25.2,  -26.2,  -27.3,  999.0,  -28.2,  -29.4,  -29.9,  -31.1,  -31.3,  -32.8,  -34.1,  999.0,  999.0,  -36.2,  -37.3,  -38.4,  -38.0,  -39.5,  999.0,  -40.2,  -41.0,  -41.9,  -41.0,  -41.8,  -41.7,  -41.9,  -42.0,  -41.8,  -41.3,  999.0,  -41.0,  -41.4,  -42.2,  999.0,  -41.1,  999.0
2001/09/16 09:00,  999.0,    1.1,    0.4,   -0.3,   -2.7,   -4.4,   -6.0,  999.0,   -6.6,  999.0,  999.0,   -9.4,  -10.8,  -12.2,  -13.3,  -15.2,  -20.3,  -21.0,  -23.6,  -24.7,  999.0,  -25.3,  -25.3,  999.0,  -28.7,  -28.7,  -31.4,  -31.6,  -30.1,  -33.3,  -33.7,  999.0,  999.0,  -36.7,  -40.6,  -39.1,  999.0,  -38.0,  -39.5,  -40.6,  -39.5,  999.0,  -41.6,  -42.3,  -41.8,  -42.0,  999.0,  -41.8,  -41.2,  -41.6,  999.0,  -41.7,  -42.0,  -41.8,  999.0,  999.0,  -42.2,  -41.6
2001/09/16 09:10,  999.0,    0.0,   -0.0,   -0.1,   -1.6,   -3.3,   -4.0,   -5.3,   -7.8,  999.0,   -9.2,   -9.9,  -11.3,  -13.2,  -14.1,  -15.4,  -17.8,  999.0,  -23.0,  999.0,  999.0,  -24.7,  999.0,  999.0,  -27.9,  -28.4,  -30.2,  999.0,  999.0,  999.0,  -33.2,  -34.9,  999.0,  -35.9,  -37.3,  999.0,  -38.4,  999.0,  -40.4,  -41.6,  999.0,  -41.5,  -42.2,  -42.1,  -41.3,  -41.8,  -41.6,  999.0,  -41.8,  -41.8,  -42.1,  999.0,  -41.4,  -41.6,  -42.3,  -41.6,  999.0,  -42.3
2001/09/16 09:20,  999.0,    0.7,    0.3,   -1.0,   -1.5,   -3.1,   -4.5,   -5.8,   -7.4,  999.0,   -8.6,  -10.4,  -12.6,  -14.3,  -15.2,  -16.0,  999.0,  -21.9,  999.0,  -25.4,  -25.0,  -27.3,  -27.0,  -28.4,  -30.1,  -31.0,  -31.8,  -33.3,  -33.7,  999.0,  999.0,  -37.6,  -38.3,  999.0,  -40.1,  -41.3,  -41.3,  999.0,  -41.8,  -41.9,  -41.5,  999.0,  -41.8,  -42.1,  -41.9,  -42.0,  -41.6,  -41.3,  999.0,  -41.8,  -42.0,  -41.8,  -42.2,  -41.7,  999.0,  -42.0,  -41.7,  -42.0
2001/09/16 09:30,  999.0,   -0.3,    0.1,   -0.4,   -1.9,   -4.2,   -5.9,   -6.5,  999.0,   -7.2,   -8.4,  -10.4,  -12.4,  -13.6,  -14.7,  -16.8,  999.0,  -21.9,  -25.2,  999.0,  999.0,  -26.7,  -27.9,  -29.0,  -31.5,  -32.3,  -34.0,  -34.2,  -35.8,  -35.9,  -37.0,  -38.4,  -41.0,  -40.3,  -40.9,  -41.6,  -41.5,  -41.4,  -41.5,  999.0,  -41.6,  -41.7,  -42.1,  -41.6,  999.0,  -41.8,  -41.6,  -41.7,  -41.7,  999.0,  -41.9,  -42.2,  -41.9,  -42.0,  -41.5,  -41.9,  -41.9,  -41.8
2001/09/16 09:40,  999.0,    0.3,   -0.6,   -1.5,   -2.3,   -3.9,   -6.0,   -7.9,   -8.5,   -8.6,  -10.4,  -10.6,  -12.3,  -13.2,  -14.9,  -17.3,  -21.8,  999.0,  -23.2,  -26.8,  999.0,  -30.6,  -30.9,  -31.0,  -28.4,  -34.1,  -35.0,  -36.3,  -36.2,  999.0,  -39.8,  -38.7,  -39.0,  -40.3,  -40.8,  -40.9,  -41.0,  -41.4,  -41.7,  -41.8,  -41.3,  -41.9,  999.0,  -41.7,  -42.7,  -42.1,  999.0,  -41.7,  -41.7,  999.0,  -41.9,  -41.6,  999.0,  999.0,  -42.1,  999.0,  -41.9,  -42.1
2001/09/16 09:50,  999.0,   -1.6,    0.8,    1.5,   -0.9,   -2.4,   -3.9,   -4.8,   -6.8,   -9.0,   -9.5,  -11.5,  -13.1,  -14.4,  -15.9,  -18.5,  999.0,  -19.2,  -18.7,  999.0,  999.0,  -13.2,  999.0,   -9.9,  999.0,  999.0,  999.0,  999.0,   -6.0,  999.0,  999.0,  999.0,  999.0,  999.0,  999.0,  999.0,  999.0,   -2.5,   -1.5,  999.0,  999.0,   -0.8,   -1.1,   -0.4,   -0.5,  999.0,  999.0,  999.0,  999.0,  999.0,   -0.2,   -0.2,  999.0,   -0.6,  999.0,  999.0,  999.0,  999.0
2001/09/16 10:00,  999.0,    0.1,  999.0,  999.0,   -0.6,    0.1,   -0.2,   -4.1,   -5.9,   -9.0,  -10.8,  -13.0,  -14.3,  -16.5,  -18.4,  -20.4,  -20.4,  -19.5,  -18.3,  -18.3,  -17.2,  -15.2,  999.0,  -14.5,  -13.9,  -10.9,  -11.8,  999.0,   -9.2,   -7.9,   -8.7,  999.0,   -5.1,   -4.7,   -4.3,   -3.3,  999.0,   -1.5,   -0.9,   -1.5,   -0.7,   -0.1,   -0.4,   -0.4,   -0.4,   -1.0,   -1.1,   -0.8,   -0.8,   -0.7,   -0.6,   -1.0,   -0.8,   -0.7,   -0.8,  999.0,   -0.7,   -0.1
2001/09/16 10:10,  999.0,    1.5,  999.0,   -3.0,   -3.5,   -5.7,   -5.4,   -6.3,   -7.8,   -9.9,  -10.7,  -12.2,  -14.4,  -17.5,  999.0,  -20.7,  999.0,  -20.4,  -19.0,  -19.9,  -15.9,  999.0,  999.0,  999.0,  -12.2,  -11.7,  999.0,  999.0,  999.0,  999.0,   -7.7,  999.0,  999.0,  999.0,  999.0,  999.0,  999.0,  999.0,  999.0,  999.0,  999.0,  999.0,  999.0,  999.0,  999.0,   -0.8,  999.0,   -0.4,   -0.4,  999.0,  999.0,  999.0,  999.0,  999.0,  999.0,  999.0,   -0.5,  999.0
2001/09/16 10:20,  999.0,   -5.9,   -4.1,   -1.1,   -3.2,   -5.6,   -6.4,   -7.9,   -8.1,   -9.7,  -11.8,  -13.1,  -13.0,  -14.6,  -18.1,  999.0,  999.0,  999.0,  -21.0,  999.0,  -21.7,  999.0,  -25.7,  -27.0,  999.0,  999.0,  999.0,  999.0,  -30.7,  999.0,  999.0,  999.0,  999.0,  -28.8,  999.0,  999.0,  999.0,  999.0,  999.0,  999.0,  999.0,  999.0,  999.0,  999.0,  999.0,  999.0,  999.0,  999.0,  999.0,  999.0,  999.0,  999.0,  999.0,  999.0,  999.0,  999.0,  999.0,  999.0
2001/09/16 10:30,  999.0,    0.1,  999.0,   -1.7,   -2.8,   -4.1,   -6.8,   -7.5,   -8.2,   -8.8,  -10.0,  -12.1,  -13.0,  -14.5,  -17.4,  -21.1,  999.0,  -23.3,  -24.5,  -24.4,  -28.1,  -27.7,  999.0,  999.0,  999.0,  999.0,  -34.9,  -36.1,  -36.9,  -38.5,  -39.0,  999.0,  -39.1,  -40.6,  -41.6,  -41.7,  -41.9,  999.0,  999.0,  999.0,  -41.4,  999.0,  -41.7,  -41.5,  -41.6,  -41.8,  -41.8,  -41.7,  999.0,  -41.7,  -42.0,  -42.3,  -42.2,  -42.3,  -42.0,  -41.9,  -41.5,  -41.8
2001/09/16 10:40,  999.0,   -2.0,   -1.7,   -2.0,   -3.6,   -4.2,   -5.3,   -6.8,   -6.2,   -6.1,   -8.0,  -10.1,  -12.8,  -15.0,  -17.7,  -20.1,  -21.4,  999.0,  -23.4,  -24.7,  -25.0,  -27.2,  -25.2,  -30.6,  -29.6,  -31.7,  999.0,  -34.0,  -33.4,  -34.8,  -35.2,  -37.2,  -37.0,  999.0,  -40.6,  -41.1,  -41.0,  -40.9,  -41.5,  999.0,  -41.5,  999.0,  -43.8,  -41.8,  -42.0,  -41.8,  -42.0,  -41.8,  -41.9,  -41.6,  999.0,  -41.6,  -41.7,  999.0,  999.0,  -41.8,  -41.8,  -41.4
2001/09/16 10:50,  999.0,   -5.0,   -1.6,   -3.7,   -4.3,   -5.6,   -6.3,   -5.5,   -7.1,   -8.2,   -9.4,  -10.8,  -12.5,  -14.2,  -16.7,  -18.9,  -20.6,  -21.1,  -21.4,  -21.5,  999.0,  -22.7,  -24.4,  -25.9,  999.0,  999.0,  999.0,  -31.0,  -32.6,  999.0,  -35.5,  999.0,  999.0,  999.0,  999.0,  999.0,  -41.7,  999.0,  999.0,  999.0,  -41.8,  999.0,  999.0,  -41.5,  999.0,  999.0,  999.0,  999.0,  -42.2,  -42.3,  -42.1,  999.0,  -42.6,  999.0,  999.0,  999.0,  -41.9,  999.0
2001/09/16 11:00,  999.0,  999.0,  999.0,   -2.9,   -3.9,   -3.4,   -4.6,   -6.1,   -6.9,   -8.2,   -9.2,   -9.7,  -11.5,  -13.8,  -15.5,  -17.4,  -18.1,  -19.4,  -21.0,  -21.1,  -21.5,  999.0,  999.0,  999.0,  999.0,  999.0,  999.0,  999.0,  999.0,  999.0,  999.0,  999.0,  999.0,  999.0,  999.0,  999.0,  999.0,  999.0,  999.0,  999.0,  999.0,  999.0,  999.0,  999.0,  999.0,  999.0,  999.0,  999.0,  999.0,  999.0,  999.0,  999.0,  999.0,  999.0,  999.0,  999.0,  999.0,  999.0
2001/09/16 11:10,  999.0,   -0.4,  999.0,   -1.2,   -2.8,    0.9,   -3.0,   -5.3,   -6.3,   -5.4,   -7.2,   -8.3,  -11.7,  -12.2,  -15.1,  -16.4,  -19.6,  -21.4,  -21.6,  -21.2,  999.0,  -20.0,  -19.5,  -18.7,  999.0,  -17.2,  999.0,  999.0,  -15.0,  999.0,  -13.2,  999.0,  999.0,  -10.6,  999.0,  999.0,  999.0,  999.0,   -6.6,  999.0,  999.0,  999.0,  999.0,   -2.8,   -2.3,   -2.1,  999.0,  999.0,   -1.1,   -1.1,  999.0,   -1.0,   -0.7,  999.0,   -0.9,  999.0,   -0.9,  999.0
2001/09/16 11:20,  999.0,  999.0,   -2.7,   -1.5,   -1.4,   -3.4,   -2.5,   -2.6,   -2.2,   -4.5,   -4.6,   -4.5,   -5.7,   -7.0,  -11.7,  -14.0,  -16.5,  -18.3,  -18.7,  -21.4,  -21.7,  -28.2,  999.0,  999.0,  -32.4,  999.0,  999.0,  -40.3,  999.0,  999.0,  -41.8,  999.0,  999.0,  -41.8,  -41.9,  -42.0,  -41.8,  999.0,  -41.7,  -41.3,  -41.8,  -41.6,  -41.6,  -41.8,  999.0,  -42.0,  -42.1,  -41.8,  -41.7,  999.0,  -41.6,  -42.0,  999.0,  -41.5,  -41.9,  -41.8,  999.0,  999.0
2001/09/16 11:30,  999.0,   -2.5,   -2.9,   -2.0,   -3.6,   -7.1,   -6.6,   -5.5,   -7.8,   -8.7,   -8.5,   -9.2,  -11.4,  -11.7,  -12.7,  -13.7,  -14.5,  -16.0,  -17.3,  -20.6,  -23.3,  -25.2,  999.0,  -26.6,  -30.5,  -32.6,  -28.2,  -33.1,  -32.3,  -35.9,  -35.4,  -35.0,  999.0,  -40.5,  -38.3,  -41.5,  -41.5,  -40.0,  999.0,  -41.0,  -41.3,  -41.6,  999.0,  -42.0,  -42.0,  -41.9,  -42.2,  -41.5,  999.0,  -41.4,  -41.9,  -41.3,  -41.5,  -41.7,  -41.5,  -41.8,  999.0,  -41.7
2001/09/16 11:40,  999.0,   -3.0,   -3.8,   -5.4,   -4.2,   -6.7,   -6.8,   -7.0,   -7.9,   -6.0,   -7.5,   -7.9,   -9.3,   -9.4,   -9.9,  -12.7,  -13.2,  -15.0,  -17.9,  -19.5,  -21.5,  -24.0,  -25.6,  999.0,  -32.0,  999.0,  999.0,  999.0,  999.0,  -36.8,  -36.9,  999.0,  999.0,  999.0,  -38.8,  -40.7,  999.0,  -41.5,  -41.3,  -42.0,  -39.2,  999.0,  -41.7,  999.0,  -41.6,  999.0,  -42.1,  -41.3,  -41.1,  999.0,  999.0,  999.0,  999.0,  -42.4,  -41.7,  -41.7,  999.0,  999.0
2001/09/16 11:50,  999.0,    1.4,   -1.9,   -3.6,   -2.3,    0.5,   -3.2,   -4.7,   -5.6,   -7.0,   -7.9,   -8.4,   -8.6,  -10.0,   -9.8,  -10.4,  -11.5,  -11.8,  -12.9,  -15.0,  -17.4,  -20.8,  -23.5,  -22.9,  -22.5,  -25.6,  -24.7,  -25.0,  -26.6,  999.0,  -29.1,  -11.8,  -28.5,  -31.3,  -21.5,  -14.8,  -39.4,  -34.7,  -15.7,  -40.9,  999.0,  -27.2,  -27.9,  -39.1,  -42.1,  -26.0,  -40.6,  -18.8,  -42.4,  999.0,  -34.9,  999.0,  -27.7,  999.0,  -33.7,  -20.7,  999.0,  -41.9
2001/09/16 12:00,  999.0,   -2.6,   -5.4,   -6.9,   -5.2,   -7.9,   -8.2,   -8.6,   -8.9,   -8.6,   -8.2,   -9.2,   -9.7,  -10.7,  -10.2,  -11.9,  -11.3,  -11.4,  -13.3,  -15.3,  -16.0,  -18.0,  -19.3,  -21.2,  -22.2,  -22.9,  -24.1,  -25.2,  -26.4,  999.0,  -28.5,  999.0,  -30.1,  -31.4,  999.0,  999.0,  -35.0,  999.0,  -36.6,  999.0,  -39.0,  -39.7,  -41.3,  -41.6,  999.0,  999.0,  -42.2,  -41.8,  999.0,  999.0,  -41.7,  999.0,  999.0,  -41.6,  -41.7,  -41.4,  -41.9,  -42.4
2001/09/16 12:10,  999.0,   -1.8,    0.0,   -3.5,   -4.5,   -3.5,   -5.0,   -4.9,   -4.3,   -4.3,   -4.8,   -6.0,   -7.8,   -7.9,   -8.3,   -9.5,  -11.1,  -12.5,  -12.8,  -15.2,  -17.3,  -18.1,  -13.7,  -12.9,   -8.6,  -12.3,  -19.4,  -22.9,  -10.8,  -14.0,  999.0,  -20.6,  -25.4,  999.0,   -0.1,  999.0,  999.0,  999.0,  -10.6,  -14.8,  999.0,  -15.2,  999.0,  999.0,  999.0,   -8.3,  -22.4,  999.0,  999.0,  -14.9,  -11.1,  999.0,  999.0,  999.0,   -0.7,   20.1,   -0.8,  999.0
2001/09/16 12:20,  999.0,   -2.0,   -1.3,   -4.0,   -1.3,   -7.5,   -8.6,   -6.9,   -7.9,   -8.3,   -8.6,   -7.1,   -8.1,  -10.0,  -11.1,  -11.0,  -12.6,  -14.0,  -16.3,  -17.2,  -16.5,  -17.6,  -19.1,  -20.2,  -24.2,  -21.3,  -22.1,  -19.5,  -27.8,  999.0,  -24.0,  -24.6,  -20.3,  999.0,  -22.8,  -34.8,  999.0,  -24.5,  999.0,  -37.6,  -25.0,  -32.1,  -32.3,  999.0,  -29.6,  999.0,  -37.9,  999.0,  -40.2,  -40.8,  -32.5,  999.0,  999.0,  -42.2,  -41.9,  -42.3,  -42.8,  -42.5
2001/09/16 12:30,  999.0,   -2.3,   -1.5,   -1.6,   -2.9,   -1.7,   -3.5,   -6.1,   -6.0,   -5.5,   -7.5,   -8.5,   -9.2,  -10.7,  -12.4,  -11.1,  -13.3,  -11.8,  -11.4,  -12.6,  -14.0,  -15.0,  -17.3,  -20.6,  -20.7,  -20.7,  999.0,  999.0,  999.0,  999.0,  999.0,  999.0,  999.0,  999.0,  999.0,  999.0,  999.0,  999.0,  999.0,  999.0,  999.0,  999.0,  999.0,  999.0,  999.0,  999.0,  999.0,  999.0,  999.0,  999.0,  999.0,  999.0,  999.0,  999.0,  999.0,  999.0,  999.0,  999.0
2001/09/16 12:40,  999.0,   -3.9,   -3.1,   -3.2,   -4.0,   -2.5,   -6.0,   -6.3,   -6.4,   -8.5,   -7.8,   -8.1,   -7.6,  -10.1,  -11.0,  -10.7,  -11.4,  -12.6,  -14.0,  -14.2,  -13.9,  -16.5,  -16.8,  -18.8,  999.0,  999.0,  999.0,  999.0,  999.0,  -18.0,  -10.8,   -9.3,   12.9,  999.0,   15.8,  999.0,   11.3,  999.0,  999.0,  999.0,   20.2,   -0.5,  999.0,   20.5,  999.0,  999.0,   20.4,  999.0,   20.2,   20.4,   41.6,    9.4,   36.5,   41.6,   20.4,   42.1,  999.0,   34.5
2001/09/16 12:50,  999.0,   -2.1,   -2.9,   -2.2,   -2.2,   -1.5,   -1.3,   -4.0,   -1.8,   -2.3,   -7.0,   -4.5,   -5.7,  999.0,  999.0,  -10.1,   -9.9,   -9.9,  -11.3,  -13.9,  -15.2,  -18.2,  -21.5,  -23.9,  -23.6,  -25.5,  -25.2,  -27.5,  -29.4,  -28.0,  999.0,  999.0,  999.0,  999.0,  999.0,  999.0,  999.0,  999.0,  -14.1,  999.0,  999.0,  999.0,   -6.9,  999.0,  999.0,  999.0,  999.0,  999.0,  999.0,  999.0,  999.0,    0.6,    0.8,  999.0,    0.2,    0.7,    0.8,    0.5
2001/09/16 13:00,  999.0,   -3.7,   -4.5,   -6.3,  999.0,   -2.2,   -3.8,   -2.3,   -4.4,   -5.0,   -5.4,   -5.0,   -5.2,   -5.8,   -9.9,  -10.5,  -12.3,  -12.3,  -13.8,  -15.0,  -14.8,  -14.3,  -17.7,  -19.0,  -23.8,  -25.3,  -27.4,  -31.3,  -31.8,  -31.6,  -31.2,  -37.4,  -31.1,  999.0,  999.0,  999.0,  999.0,  999.0,  999.0,  999.0,  999.0,  999.0,  999.0,  999.0,  999.0,  999.0,  999.0,  999.0,  999.0,  999.0,  999.0,  999.0,  999.0,  999.0,  999.0,    0.5,    0.7,    1.2
2001/09/16 13:10,  999.0,   -2.6,   -3.0,   -4.0,   -2.1,   -4.2,   -2.7,   -2.1,   -1.0,   -1.2,   -3.7,   -5.4,   -4.0,   -4.2,   -7.0,   -8.0,   -9.3,  -10.5,  -11.1,  -12.7,  -13.7,  -16.3,  -21.9,  -25.1,  -27.4,  -28.9,  -31.1,  -28.8,  -33.9,  -36.5,  -35.8,  -39.2,  -40.4,  -40.5,  -40.2,  -41.9,  -41.6,  999.0,  -41.7,  -27.5,  999.0,  999.0,  999.0,  999.0,  999.0,  999.0,  -42.1,  999.0,  999.0,  -20.4,  999.0,  999.0,  -26.6,  999.0,  -12.2,  -31.8,  999.0,  -27.5
2001/09/16 13:20,  999.0,    0.7,   -0.8,   -0.7,   -2.0,   -5.4,   -4.2,   -3.5,   -4.1,   -3.3,   -2.7,   -3.3,   -4.5,   -7.1,   -6.1,   -7.0,   -8.4,  -10.3,  -11.5,  -12.1,  -13.5,  -16.1,  -20.0,  -20.6,  -23.0,  -24.8,  -24.6,  -27.5,  -32.6,  -32.9,  -37.5,  -33.0,  -35.6,  -39.5,  -38.8,  -40.0,  -41.9,  -41.4,  -42.0,  -41.8,  999.0,  -41.7,  -42.3,  -41.7,  999.0,  -41.5,  -42.1,  -42.0,  -41.9,  -41.8,  999.0,  -42.1,  -42.0,  -42.4,  -41.6,  -42.0,  -41.8,  -41.5
2001/09/16 13:30,  999.0,   -2.9,   -5.5,   -4.3,   -3.9,   -4.7,   -5.5,   -5.1,   -5.7,   -5.1,   -6.2,   -7.3,   -6.5,   -6.5,   -6.9,   -7.7,   -7.7,   -9.8,  -12.3,  -15.2,  -17.7,  -17.0,  -21.0,  -23.1,  -24.7,  -25.3,  -28.0,  -26.6,  -26.4,  -32.2,  -28.6,  -30.7,  999.0,  -31.1,  -33.1,  -33.7,  -36.5,  -36.5,  -36.3,  -37.8,  -39.0,  -39.8,  -40.2,  -40.8,  -40.7,  -41.4,  -41.1,  -41.9,  -42.3,  -42.4,  -42.1,  -41.9,  -42.2,  -42.3,  -42.0,  -42.0,  -42.2,  -42.2
2001/09/16 13:40,   12.1,    5.4,    2.2,   -3.6,   -3.5,   -4.0,   -4.8,   -5.8,   -6.1,   -6.4,   -6.5,   -6.4,   -6.4,   -6.9,   -8.6,   -8.1,  -10.0,  -10.3,  -11.5,  -12.5,  -14.4,  -15.7,  -15.4,  -21.5,  -25.2,  -28.9,  -32.2,  -33.7,  -37.8,  -39.9,  -41.2,  -42.3,  -42.2,  -42.5,  -42.7,  -42.4,  -42.5,  -42.0,  -42.2,  -42.2,  -41.9,  -42.3,  999.0,  -42.0,  -42.2,  -42.7,  -42.3,  -42.4,  -42.2,  -42.1,  -42.7,  -42.3,  999.0,  -42.1,  -42.4,  -42.2,  -42.2,  -41.9
2001/09/16 13:50,    8.8,  999.0,    5.5,    5.7,   -0.2,   -6.1,   -5.4,   -6.3,   -5.3,   -4.8,   -4.5,   -4.7,   -5.6,   -7.0,   -7.9,   -9.4,  -10.6,  -10.8,  -10.3,  -13.2,  -13.8,  -16.2,  -21.3,  -23.5,  999.0,  -28.0,  -33.3,  -33.0,  -35.6,  999.0,  -32.7,  -38.0,  -34.6,  -37.8,  -38.8,  -38.4,  -39.0,  -41.9,  -41.6,  -41.3,  -41.9,  -41.3,  -41.6,  -41.7,  -42.1,  -41.8,  -41.7,  -42.3,  -41.8,  -42.3,  -41.8,  -41.9,  -41.5,  -42.1,  -41.7,  -41.9,  -42.0,  -41.5
2001/09/16 14:00,   12.7,    4.8,   -0.3,   -2.8,   -2.7,   -0.5,   -1.5,   -4.1,   -6.5,   -4.8,   -5.5,   -5.4,   -6.4,   -7.3,   -8.3,   -8.8,   -9.3,  -10.5,  -11.8,  -12.9,  -14.6,  -16.1,  -16.0,  -16.6,  -19.9,  -23.5,  -29.2,  -28.4,  -31.0,  -35.3,  -38.1,  -37.5,  -38.2,  -38.7,  -41.4,  -41.9,  -41.5,  -41.5,  -41.5,  -41.5,  -41.3,  -41.5,  -42.0,  -41.6,  -41.5,  -41.9,  -41.5,  -41.5,  -41.7,  999.0,  -41.7,  -41.1,  -41.5,  -41.7,  -41.9,  -41.3,  -41.6,  -41.5
2001/09/16 14:10,   14.0,    6.2,    3.4,    1.1,   -1.4,   -2.4,   -3.2,   -3.6,   -3.9,   -4.1,   -3.0,   -3.8,   -6.1,   -6.5,   -7.7,   -9.2,  -11.5,  -13.2,  -13.3,  -13.8,  -15.6,  -17.5,  -19.6,  -21.1,  -22.3,  -22.5,  -23.3,  999.0,  -27.5,  -26.6,  999.0,  -35.0,  -28.2,  -28.6,  -30.1,  -37.3,  -35.8,  999.0,  -38.7,  -37.3,  -41.4,  -39.0,  999.0,  -38.4,  -39.4,  -39.1,  -41.1,  -39.2,  -39.4,  -41.4,  -40.1,  999.0,  -40.5,  999.0,  -41.3,  -41.4,  -41.6,  -41.3
2001/09/16 14:20,  999.0,   -0.8,   -3.1,   -2.6,   -4.1,   -4.7,   -4.0,   -4.4,   -6.0,   -5.6,   -5.3,   -5.7,   -6.2,   -6.5,   -6.1,   -7.7,   -9.8,  -10.1,  -10.8,  -13.6,  -15.4,  -16.6,  -17.4,  -21.4,  -24.1,  -17.6,  -17.2,  -26.7,  -18.5,  -14.4,  -29.8,  -19.8,  -15.5,  -21.0,  999.0,  -17.4,  -23.0,  999.0,  999.0,  -36.5,  999.0,  -29.0,  -19.3,  -26.1,  -30.6,  999.0,  -28.1,  999.0,  -41.8,  -21.1,  -27.9,  -31.2,  -41.6,  -41.8,  -28.3,  -28.1,  -41.8,  -31.4
2001/09/16 14:30,  999.0,   -1.3,   -2.5,   -3.9,   -5.5,   -5.9,   -6.5,   -6.4,   -6.5,   -6.4,   -6.8,   -7.0,   -7.6,   -8.2,   -9.2,   -9.9,  -10.7,  -12.0,  -13.6,  -14.8,  -16.3,  -17.4,  -19.3,  -20.4,  -21.9,  999.0,  999.0,  999.0,  999.0,  999.0,  999.0,  -27.9,  -30.8,  -31.7,  999.0,  -33.3,  -34.3,  999.0,  -36.4,  999.0,  -37.6,  -37.8,  -38.7,  -39.0,  999.0,  999.0,  -41.2,  -40.7,  999.0,  999.0,  999.0,  -41.7,  999.0,  -41.5,  999.0,  -41.3,  999.0,  999.0
2001/09/16 14:40,  999.0,   -2.4,   -2.9,   -3.8,   -4.0,   -4.9,   -5.5,   -5.5,   -5.6,   -5.9,   -6.4,   -6.8,   -7.7,   -9.2,  -10.3,  -10.8,  -12.4,  -13.1,  -15.3,  -16.5,  -17.9,  -16.4,  999.0,  999.0,  999.0,  999.0,  -25.4,  -26.9,  -18.4,  -22.3,  -23.1,  999.0,  -18.6,  -36.6,  999.0,  999.0,  -27.5,  -27.9,  999.0,  -28.0,  999.0,  999.0,  -41.5,  999.0,  -21.2,  -41.6,  -41.6,  -29.7,  -32.4,  -34.6,  -38.5,  999.0,  -41.8,  999.0,  999.0,  -42.1,  -28.4,  999.0
2001/09/16 14:50,  999.0,   -0.1,   -1.6,   -2.8,   -3.6,   -4.3,   -3.3,   -4.7,   -5.6,   -6.5,   -6.6,   -6.8,   -6.9,   -6.9,   -8.1,   -9.2,  -10.8,  -10.4,  -11.9,  -13.8,  -12.7,  -14.7,  -14.6,  -15.5,  -18.8,  -22.6,  -21.3,  -24.1,  -27.4,  -28.4,  999.0,  -30.3,  -31.2,  -32.7,  -35.2,  -36.7,  -36.4,  999.0,  -41.8,  -41.4,  -41.0,  -41.4,  -41.6,  -42.7,  -41.9,  -41.8,  999.0,  -41.8,  -42.0,  -41.8,  -42.2,  -41.6,  -41.6,  -41.7,  999.0,  -41.3,  -41.6,  -41.8
2001/09/16 15:00,  999.0,    0.7,   -1.6,   -2.9,   -2.2,   -3.0,   -4.3,   -4.4,   -4.8,   -6.1,   -6.7,   -7.1,   -6.6,   -7.2,   -7.9,   -9.7,  -10.6,  -11.6,  -11.9,  -14.2,  -16.0,  -18.0,  -20.1,  -22.9,  -23.9,  -24.6,  -26.3,  -27.7,  -28.7,  -30.4,  -31.7,  999.0,  -34.2,  -35.5,  -36.8,  -38.5,  -38.4,  -39.8,  -42.1,  -42.0,  -41.7,  -42.4,  -41.6,  -41.7,  999.0,  -42.1,  -42.3,  -42.4,  -42.0,  -42.1,  -41.9,  -42.0,  -41.9,  -41.9,  -41.7,  -42.1,  -41.6,  -41.9
2001/09/16 15:10,  999.0,    0.2,   -0.9,   -3.2,   -4.3,   -5.6,   -6.0,   -4.5,   -4.1,   -4.3,   -6.2,   -6.7,   -8.6,   -8.7,   -9.9,  -11.6,  -12.9,  -15.6,  -16.3,  -17.7,  -20.0,  -21.6,  -22.4,  -24.3,  -25.4,  -27.2,  -28.3,  -31.0,  999.0,  -32.3,  999.0,  -34.9,  -36.2,  -37.5,  -39.1,  -38.7,  -38.6,  -39.4,  -40.6,  -41.3,  -41.9,  -41.3,  -41.8,  -42.0,  -41.9,  -41.8,  -42.0,  -41.8,  -42.0,  -41.8,  -42.9,  -42.2,  -41.8,  -41.6,  -41.8,  -41.8,  -41.6,  -41.7
2001/09/16 15:20,  999.0,   -3.6,   -4.3,   -4.4,   -4.3,   -4.2,   -4.9,   -5.8,   -7.3,   -6.7,   -8.1,   -9.9,  -11.0,  -12.0,  -12.8,  -13.6,  -14.4,  -16.1,  -17.4,  -17.9,  -19.3,  -20.2,  -19.4,  -22.5,  -24.4,  -25.2,  -26.8,  -29.0,  -30.0,  -31.0,  -33.3,  -34.0,  -36.0,  -36.6,  -36.9,  -39.7,  -39.5,  -40.4,  -41.9,  -41.6,  -41.6,  -42.2,  -41.9,  -42.2,  -41.7,  -41.7,  -41.2,  -41.6,  -41.3,  -42.1,  -41.4,  -41.9,  -42.4,  -42.0,  -41.9,  -41.9,  -42.0,  999.0
2001/09/16 15:30,  999.0,   -3.6,   -3.5,   -5.5,   -7.0,   -7.7,   -8.3,   -8.1,   -8.7,   -8.7,   -9.6,  -10.2,  -10.9,  -11.8,  -12.4,  -13.8,  -14.3,  -15.3,  -17.0,  -20.2,  -19.6,  -20.0,  -22.7,  999.0,  -27.0,  -28.3,  -27.9,  -31.1,  -32.7,  -22.8,  -33.8,  -36.5,  -37.7,  -38.7,  -40.0,  -40.7,  -41.3,  -31.0,  -41.9,  -41.9,  -41.9,  999.0,  999.0,  -41.9,  999.0,  -41.6,  -41.8,  -33.5,  -20.8,  -36.5,  -41.5,  -41.7,  -31.5,  -41.7,  999.0,  -30.6,  -34.7,  -41.4
2001/09/16 15:40,  999.0,   -2.7,   -2.2,   -3.5,   -6.3,   -6.9,   -7.5,   -9.1,   -9.9,   -9.7,  -10.3,  -11.2,  -11.7,  -12.8,  -13.6,  -14.4,  -15.0,  -15.7,  -16.4,  -19.2,  -18.5,  -19.4,  999.0,  -23.0,  -26.0,  -25.4,  999.0,  -27.7,  -28.8,  -31.4,  -32.6,  -36.3,  -35.6,  -39.5,  -38.9,  -41.3,  -41.1,  -41.4,  -42.3,  -41.8,  999.0,  -42.1,  -41.9,  -41.4,  -41.9,  -41.7,  -41.9,  -41.9,  -41.9,  -41.7,  -41.6,  -41.7,  -41.5,  -41.7,  -41.7,  999.0,  999.0,  -41.9
2001/09/16 15:50,  999.0,   -2.6,   -4.2,   -5.2,   -5.7,   -7.4,   -7.5,   -7.6,   -7.7,   -8.4,   -9.4,  -10.1,  -10.9,  -11.8,  -12.1,  -12.5,  -12.2,  -13.6,  999.0,  999.0,  -16.1,  -17.8,  -21.2,  999.0,  -25.2,  -25.5,  -28.3,  -30.5,  -32.3,  -34.9,  -37.9,  -37.5,  -40.4,  -40.4,  -42.4,  -41.7,  -42.1,  -41.7,  -41.9,  -42.3,  -41.5,  -41.5,  -41.9,  -42.1,  -41.8,  -42.1,  -41.5,  -41.8,  -41.7,  -40.2,  -42.1,  -41.9,  999.0,  -41.8,  -42.3,  -42.2,  -42.0,  -42.1
2001/09/16 16:00,  999.0,   -2.0,   -3.3,   -3.9,   -4.8,   -6.9,   -7.9,   -8.0,   -8.3,   -8.7,   -9.5,  -10.0,  -10.1,  -10.0,  -10.4,  -12.1,  -12.1,  -12.9,  -14.3,  -16.4,  -17.2,  -22.6,  -23.6,  -22.0,  -27.0,  999.0,  -29.9,  -28.8,  -32.3,  999.0,  999.0,  -36.9,  999.0,  999.0,  -40.0,  -40.6,  -41.7,  -42.0,  -41.6,  -41.8,  -42.2,  -41.4,  999.0,  -42.3,  999.0,  999.0,  -42.2,  -42.0,  -42.3,  -41.9,  -42.1,  999.0,  999.0,  -42.1,  999.0,  999.0,  -42.2,  999.0
2001/09/16 16:10,  999.0,   -5.7,   -6.1,   -6.9,   -7.6,   -8.2,   -8.1,   -8.6,   -8.5,   -8.9,   -9.5,   -8.6,   -8.6,   -9.9,  -11.3,  -12.5,  -13.5,  -15.0,  -15.8,  -17.1,  -17.4,  -18.9,  -22.3,  -23.4,  -23.6,  -23.1,  -25.8,  -29.1,  -22.9,  -22.5,  -26.2,  -31.6,  -34.6,  -26.7,  -21.9,  -25.9,  -26.7,  -21.9,  -26.8,  -21.8,  -22.0,  -20.8,  -25.9,  -22.5,  -36.4,  -36.4,  -25.8,  -28.3,  -26.7,  -27.9,  -38.8,  -21.4,  -28.8,  -20.6,  -31.8,  -32.1,  -32.7,  999.0
2001/09/16 16:20,  999.0,   -3.3,   -3.1,   -3.7,   -5.9,   -5.7,   -7.1,   -7.5,   -8.0,   -8.8,   -8.9,   -9.1,   -9.5,  -10.7,  -12.0,  -13.4,  -14.5,  -15.0,  -17.2,  -17.9,  -19.3,  -21.1,  999.0,  -22.8,  999.0,  -24.2,  999.0,  -26.4,  999.0,  -27.9,  999.0,  -28.4,  999.0,  -28.5,  -29.4,  999.0,  999.0,  -31.5,  -32.1,  -34.1,  -33.8,  -35.9,  -34.7,  -36.1,  -36.8,  999.0,  -37.4,  -38.6,  999.0,  -39.7,  999.0,  999.0,  -41.0,  -41.3,  -41.4,  -41.6,  -42.2,  -42.2
2001/09/16 16:30,  999.0,   -3.4,   -4.5,   -4.9,   -7.4,   -8.4,   -8.1,   -8.4,   -8.9,   -9.2,   -9.4,   -9.9,  -10.5,  -11.5,  -12.4,  -13.1,  -14.6,  -15.2,  -17.1,  -18.9,  -21.4,  -21.2,  999.0,  999.0,  999.0,  999.0,  999.0,  999.0,  999.0,  999.0,  999.0,  999.0,  999.0,  999.0,  999.0,  999.0,  999.0,  999.0,  999.0,  999.0,  999.0,  999.0,  999.0,  999.0,  999.0,  999.0,  999.0,  999.0,  999.0,  999.0,  999.0,  999.0,  999.0,  999.0,  999.0,  999.0,  999.0,  999.0
2001/09/16 16:40,  999.0,   -5.4,   -5.4,   -5.9,   -7.4,   -8.8,   -8.8,   -9.3,   -9.8,   -9.8,  -10.0,  -10.8,  -11.8,  -12.9,  -13.6,  -15.1,  -15.9,  -16.4,  -19.8,  -20.8,  -21.9,  999.0,  999.0,  -22.5,  -23.7,  -23.6,  999.0,  999.0,  -28.1,  999.0,  999.0,  999.0,  -31.8,  999.0,  999.0,  -36.3,  999.0,  999.0,  999.0,  -38.3,  999.0,  999.0,  999.0,  -39.3,  999.0,  -40.8,  -41.1,  -41.5,  999.0,  999.0,  999.0,  999.0,  999.0,  999.0,  -42.0,  -42.6,  -42.0,  999.0
2001/09/16 16:50,  999.0,   -2.5,   -4.3,   -4.3,   -7.1,   -8.0,   -8.8,  -10.0,  -10.1,  -10.6,  -10.7,  -11.5,  -12.4,  -13.2,  -14.3,  -15.7,  -16.8,  -17.9,  -19.9,  -21.7,  -22.1,  -22.4,  -23.2,  -25.2,  -28.2,  -27.3,  -29.5,  -29.9,  -31.7,  999.0,  999.0,  -31.0,  -35.6,  -37.0,  -37.7,  -40.0,  -40.5,  999.0,  -41.4,  -41.4,  -41.8,  -36.3,  -34.7,  -41.7,  999.0,  -41.9,  -41.9,  999.0,  -42.3,  -27.6,  -42.0,  -41.7,  -35.0,  999.0,  999.0,  -42.3,  -41.8,  -42.2
2001/09/16 17:00,  999.0,   -4.5,   -3.9,   -6.9,   -7.6,   -8.5,   -9.3,   -9.6,  -10.0,  -10.3,  -10.8,  -12.2,  -13.8,  -14.7,  -16.3,  -17.6,  -19.8,  -21.0,  -22.8,  -23.6,  -23.9,  999.0,  -27.5,  -27.2,  -27.6,  -29.1,  999.0,  -31.8,  999.0,  -34.3,  -34.5,  -36.1,  -37.9,  -39.0,  -39.9,  999.0,  -40.9,  999.0,  -41.3,  -41.5,  -41.2,  -41.5,  999.0,  -41.5,  -41.4,  -41.5,  -41.6,  -41.5,  -41.4,  -41.4,  -41.6,  999.0,  -41.1,  -41.4,  -41.2,  999.0,  -41.3,  -41.6
2001/09/16 17:10,  999.0,   -5.2,   -5.7,   -7.9,   -7.8,   -7.5,   -8.8,  999.0,   -9.9,  -10.8,  -11.9,  -12.4,  -13.5,  -14.1,  999.0,  999.0,  -21.2,  -21.8,  -21.3,  -23.4,  999.0,  -25.5,  -27.3,  -27.8,  999.0,  999.0,  -30.3,  -32.6,  -34.3,  999.0,  -35.4,  -36.6,  999.0,  -39.2,  -39.7,  -41.2,  -41.6,  -41.6,  -41.8,  -41.7,  999.0,  -41.7,  -42.0,  999.0,  -41.8,  -42.2,  999.0,  -41.6,  -41.8,  -42.1,  -42.2,  999.0,  999.0,  -41.8,  -41.7,  -41.9,  -41.9,  -42.1
2001/09/16 17:20,  999.0,   -4.6,   -6.3,   -7.4,   -7.7,  999.0,   -9.6,  999.0,  999.0,   -9.3,  -10.1,  -11.1,  -12.4,  -13.9,  999.0,  -16.3,  999.0,  -21.5,  -21.5,  -23.5,  -24.4,  -25.5,  -26.7,  999.0,  -29.6,  -31.6,  -32.1,  -32.7,  999.0,  999.0,  -36.4,  -36.3,  -38.4,  -40.5,  -40.8,  -40.2,  -41.4,  -41.4,  -41.5,  -41.8,  -41.7,  -41.1,  -41.4,  -41.5,  -41.5,  -41.4,  -41.2,  -41.5,  -41.7,  -41.4,  -41.4,  -41.2,  -41.4,  -42.0,  -41.4,  -41.6,  -41.3,  -41.3
2001/09/16 17:30,  999.0,   -2.3,   -4.9,   -4.0,   -7.1,   -9.8,  -11.1,   -9.7,  999.0,  999.0,   -7.8,   -9.3,  -10.5,  -11.9,  -12.4,  -14.2,  -16.2,  -19.1,  -18.7,  -21.8,  999.0,  -22.3,  -22.9,  -26.6,  -26.8,  999.0,  999.0,  999.0,  999.0,  999.0,  -36.2,  -36.0,  -38.4,  -39.8,  -39.8,  -40.7,  -41.2,  -41.8,  -41.5,  -41.3,  -41.9,  -41.7,  999.0,  -40.8,  -42.0,  -41.7,  -42.0,  -41.6,  -41.9,  999.0,  -42.2,  -42.0,  999.0,  -41.5,  -41.6,  -41.4,  -41.3,  -42.0
2001/09/16 17:40,  999.0,   -7.2,   -7.9,   -8.4,   -9.3,  -10.3,  -10.7,  -10.7,   -9.5,  999.0,  999.0,  -10.0,  -10.6,  -12.0,  -14.1,  -15.9,  -16.9,  -17.3,  -19.7,  -21.4,  -21.9,  -23.0,  -23.7,  -23.7,  -26.5,  999.0,  -27.2,  999.0,  -30.7,  -31.6,  -32.5,  -35.6,  -35.3,  -36.7,  -38.7,  -39.0,  -39.2,  -40.8,  -41.5,  -42.0,  -41.6,  -42.0,  -41.6,  -41.9,  -41.9,  -41.6,  -41.3,  -41.5,  -41.6,  -41.6,  999.0,  -41.8,  999.0,  -41.5,  -41.2,  999.0,  -41.7,  -42.0
2001/09/16 17:50,  999.0,   -6.8,   -7.8,   -9.1,  -10.1,  -10.7,  -11.1,   -9.8,  999.0,  999.0,  999.0,   -9.7,  -10.9,  -12.6,  -14.1,  999.0,  -16.5,  -18.5,  -20.6,  -20.0,  -21.2,  -21.6,  -24.4,  999.0,  999.0,  -26.5,  -27.9,  999.0,  -30.3,  -30.6,  -33.0,  -33.7,  -35.4,  -35.8,  -37.2,  -38.6,  -39.6,  -38.5,  -40.2,  -41.1,  -41.3,  -41.0,  -41.3,  -41.3,  999.0,  -41.9,  -42.1,  -41.8,  -41.6,  -41.6,  -42.2,  -41.5,  -41.4,  -40.9,  -41.4,  -41.3,  -41.5,  -41.3
2001/09/16 18:00,  999.0,   -6.5,   -7.5,   -9.0,  -10.3,  -10.9,  -10.9,   -9.7,   -8.5,  999.0,  999.0,   -8.6,  -10.3,  -11.7,  999.0,  999.0,  -15.7,  -19.2,  -19.5,  -21.4,  999.0,  999.0,  -23.0,  -23.8,  -25.4,  -25.6,  999.0,  999.0,  -26.0,  -29.6,  999.0,  -32.3,  -32.8,  -33.4,  -34.9,  -35.7,  -37.0,  999.0,  -38.7,  999.0,  999.0,  -40.7,  -41.5,  -41.7,  -41.7,  -42.2,  -42.3,  -41.2,  -41.2,  -42.0,  -42.3,  -41.9,  -42.0,  -41.7,  -42.0,  999.0,  -42.0,  999.0
2001/09/16 18:10,  999.0,   -5.7,   -7.0,   -8.6,  -10.3,  -10.8,  -10.7,   -9.7,   -8.0,   -7.6,  999.0,   -7.3,   -8.8,  -10.4,  -11.4,  999.0,  999.0,  999.0,  999.0,  999.0,  999.0,  999.0,  999.0,  999.0,  999.0,  999.0,  999.0,  999.0,  999.0,  999.0,  999.0,  999.0,  999.0,  999.0,  999.0,  999.0,  999.0,  999.0,  999.0,  999.0,  999.0,  999.0,  999.0,  999.0,  999.0,  999.0,  999.0,  999.0,  999.0,  999.0,  999.0,  999.0,  999.0,  999.0,  999.0,  999.0,  999.0,  999.0
2001/09/16 18:20,  999.0,   -6.7,   -7.7,   -8.2,   -8.8,   -7.9,  -13.2,  -13.0,  -12.3,   -9.0,   -7.6,   -6.6,   -8.2,  -10.2,  -12.1,  999.0,  999.0,  999.0,  999.0,  999.0,  999.0,  999.0,  999.0,  999.0,  999.0,  999.0,  999.0,  999.0,  999.0,  999.0,  999.0,  999.0,  999.0,  999.0,  999.0,  999.0,  999.0,  999.0,  999.0,  999.0,  999.0,  999.0,  999.0,  999.0,  999.0,  999.0,  999.0,  999.0,  999.0,  999.0,  999.0,  999.0,  999.0,  999.0,  999.0,  999.0,  999.0,  999.0
2001/09/16 18:30,  999.0,  999.0,  999.0,   -8.8,  999.0,  999.0,  -11.3,   -5.2,   -4.6,   -7.0,   -4.5,   -4.1,   -2.9,   -4.1,   -3.1,   -7.5,  999.0,  999.0,  999.0,  999.0,  999.0,  999.0,  999.0,  999.0,  999.0,  999.0,  999.0,  999.0,  999.0,  999.0,  999.0,  999.0,  999.0,  999.0,  999.0,  999.0,  999.0,  999.0,  999.0,  999.0,  999.0,  999.0,  999.0,  999.0,  999.0,  999.0,  999.0,  999.0,  999.0,  999.0,  999.0,  999.0,  999.0,  999.0,  999.0,  999.0,  999.0,  999.0
2001/09/16 18:40,  999.0,  999.0,  999.0,   -4.6,   -5.6,   -8.3,   -5.8,   -8.8,  999.0,   -7.9,   -6.9,   -6.4,   -7.6,   -8.4,   -9.0,  -11.4,  -11.0,  -15.0,  999.0,  999.0,  999.0,  999.0,  999.0,  999.0,  999.0,  999.0,  999.0,  999.0,  999.0,  999.0,  999.0,  999.0,  999.0,  999.0,  999.0,  999.0,  999.0,  999.0,  999.0,  -20.0,  999.0,  999.0,  999.0,  999.0,  999.0,  999.0,  999.0,  999.0,  999.0,  999.0,  999.0,  999.0,  999.0,  999.0,  999.0,  999.0,  999.0,  999.0
2001/09/16 18:50,  999.0,   -5.1,   -6.8,   -7.9,   -5.4,   -9.7,   -8.0,   -7.0,  999.0,   -6.8,   -5.7,   -5.0,   -5.5,   -6.8,   -7.7,   -6.7,  999.0,  999.0,  999.0,  999.0,  999.0,  999.0,  999.0,  999.0,  999.0,  999.0,  999.0,  999.0,  999.0,  999.0,  999.0,  999.0,  999.0,  999.0,  999.0,  999.0,  999.0,  999.0,  999.0,  999.0,  999.0,  999.0,  999.0,  999.0,  999.0,  999.0,  999.0,  999.0,  999.0,  999.0,  999.0,  999.0,  999.0,  999.0,  999.0,  999.0,  999.0,  999.0
2001/09/16 19:00,  999.0,  999.0,   -4.6,   -9.1,   -7.7,  -12.5,  999.0,   -6.0,   -7.7,   -9.3,   -6.8,   -5.5,   -6.7,   -8.3,  999.0,  999.0,  999.0,  999.0,  999.0,  999.0,  999.0,  999.0,  999.0,  999.0,  999.0,  999.0,  999.0,  999.0,  -39.4,  999.0,  999.0,  999.0,  -42.1,  999.0,  999.0,  -41.7,  -42.2,  -41.8,  -42.0,  999.0,  -41.6,  -41.6,  -41.9,  -42.1,  -41.9,  999.0,  999.0,  999.0,  -41.4,  -41.4,  999.0,  999.0,  -41.8,  -42.0,  -41.6,  -42.3,  999.0,  -42.1
2001/09/16 19:10,  999.0,   -7.4,   -7.1,   -6.9,  999.0,  -11.4,  999.0,   -8.4,   -7.5,  -10.7,   -7.2,   -6.4,   -4.7,  999.0,  999.0,  999.0,  999.0,  999.0,  999.0,  999.0,  999.0,  999.0,  999.0,  999.0,  999.0,  999.0,  999.0,  999.0,  -40.3,  999.0,  999.0,  999.0,  999.0,  999.0,  999.0,  -38.5,  -37.5,  999.0,  -41.6,  999.0,  -40.4,  -42.4,  999.0,  -40.6,  -33.3,  -41.7,  -41.9,  -42.4,  999.0,  999.0,  999.0,  999.0,  -41.9,  999.0,  -42.0,  -41.8,  999.0,  999.0
2001/09/16 19:20,  999.0,   -6.9,   -9.3,   -6.7,  999.0,  999.0,   -9.4,   -6.0,  999.0,   -4.1,   -5.4,   -0.5,  999.0,  999.0,  999.0,  999.0,  999.0,  999.0,   -4.4,   -6.9,   -8.4,  -11.0,   -6.2,   -7.1,   -6.0,   -4.5,  999.0,   -4.0,  999.0,    0.1,   -2.4,  999.0,   -0.9,   -1.6,   -1.0,  999.0,  999.0,   -0.6,   -1.4,   -0.9,   -1.5,  999.0,  999.0,  999.0,   -0.3,   -0.8,   -1.0,   -1.0,   -0.9,   -0.8,   -0.7,   -1.0,   -0.7,   -0.5,  999.0,  999.0,   -0.6,   -0.1
2001/09/16 19:30,  999.0,   -6.0,   -7.0,   -5.9,   -5.1,   -7.0,  999.0,  999.0,   -4.8,   -4.6,   -5.4,  999.0,  999.0,  999.0,  999.0,  999.0,  999.0,  999.0,  999.0,  999.0,  -18.8,  -17.4,  -16.9,  -14.0,  -15.4,  -13.7,  -11.9,  -10.1,   -8.0,   -6.9,   -8.3,   -6.0,   -6.4,   -5.3,   -3.5,    5.2,   -1.5,  999.0,   -1.0,  999.0,   -0.7,   -0.1,   -0.7,   -1.2,   -1.4,   -1.0,   -1.0,   -0.4,   -1.2,  999.0,    6.5,   -0.8,  999.0,   -0.5,   -0.3,   -0.7,   -1.1,   -0.5
2001/09/16 19:40,  999.0,   -4.0,   -5.6,   -6.8,   -5.5,   -6.3,   -7.5,   -8.3,   -3.0,  999.0,   -7.3,  999.0,  999.0,  999.0,  999.0,  999.0,  999.0,  999.0,  -13.9,  -16.1,  999.0,  999.0,  999.0,  -14.6,  -13.4,  999.0,   -8.9,  999.0,  -10.1,  999.0,   -5.6,  999.0,   -6.7,   -3.5,  999.0,   -2.8,   -2.4,   -0.6,   -2.6,   -0.2,  999.0,   -1.5,  999.0,   -0.7,   -0.5,   -1.0,  999.0,   -0.9,   -0.5,  999.0,   -0.9,   -0.6,   -1.0,  999.0,   -0.5,  999.0,  999.0,   -0.8
2001/09/16 19:50,  999.0,   -5.6,   -6.4,   -6.8,  999.0,  999.0,  999.0,  -10.2,  -12.6,  999.0,  -15.8,  999.0,  999.0,  999.0,  999.0,  999.0,  999.0,  999.0,  999.0,  999.0,  -18.0,  999.0,  -16.9,  -15.8,  -15.6,  -15.0,  -13.1,  -13.0,  999.0,   -9.6,  -10.3,   -9.2,   -6.3,   -6.6,  999.0,   -5.6,  999.0,   -0.5,  999.0,   -1.4,   -1.3,   -0.2,   -1.8,   -2.4,  999.0,   -1.5,  999.0,   -0.8,   -0.4,   -0.9,   -0.9,   -0.8,   -1.0,   -0.2,   -0.4,   -0.7,   -0.9,  999.0
2001/09/16 20:00,  999.0,   -4.9,   -5.1,   -5.9,   -6.2,   -8.4,   -8.8,   -7.5,  999.0,  999.0,  999.0,  999.0,  999.0,  999.0,   -6.9,   -8.4,  999.0,  999.0,  999.0,  -19.7,  -18.8,  999.0,  999.0,  -16.3,  -15.1,  999.0,  999.0,  999.0,  -10.8,  -13.2,  -11.1,  999.0,  999.0,   -8.1,   -7.9,   -6.8,   -4.7,  999.0,  999.0,  999.0,   -2.5,   -4.5,  999.0,   -2.1,   -1.7,  999.0,  999.0,  999.0,  999.0,  999.0,  999.0,  999.0,  999.0,   -1.0,   -1.6,   -0.9,   -0.8,  999.0
2001/09/16 20:10,  999.0,   -3.9,   -4.4,   -5.1,   -7.9,  -11.0,   -7.6,  999.0,   -1.5,   -4.9,  999.0,   -9.7,  999.0,  -13.3,   -8.9,  -10.5,  -15.2,  -14.3,  -15.2,  999.0,  999.0,  -17.3,  -17.8,  999.0,  -14.6,  -12.3,  999.0,  -11.8,  999.0,  -10.6,   -8.3,   -6.6,   -9.5,   -4.5,   -2.6,  999.0,   -2.5,  999.0,   -3.0,   -1.4,   -0.7,   -1.8,  999.0,   -0.4,   -1.1,  999.0,  999.0,   -1.1,   -1.1,  999.0,   -0.3,  999.0,  999.0,   -0.6,   -0.9,  999.0,   -0.5,   -0.7
2001/09/16 20:20,  999.0,   -5.7,   -6.2,   -6.2,   -7.2,   -8.2,   -9.4,  -10.4,   -7.6,  999.0,  999.0,  999.0,  999.0,  999.0,  999.0,  999.0,   -9.9,  -14.0,  -15.7,  999.0,  999.0,  999.0,  999.0,  999.0,  999.0,  999.0,  999.0,  999.0,   -9.5,   -8.6,  999.0,  999.0,  999.0,  999.0,  999.0,  999.0,  999.0,   -1.1,   -1.1,  999.0,  999.0,   -0.3,  999.0,  999.0,  999.0,  999.0,  999.0,   -0.8,   -1.1,  999.0,   -0.3,   -0.4,  999.0,   -0.0,  999.0,  999.0,  999.0,  999.0
2001/09/16 20:30,  999.0,   -5.2,   -6.1,   -6.6,   -4.1,   -9.7,  999.0,  999.0,  -10.7,   -7.2,  999.0,  999.0,  999.0,  999.0,  999.0,  999.0,  -12.7,  -14.4,  -14.4,  -13.7,  999.0,  999.0,  999.0,  999.0,  -14.1,  999.0,  999.0,  999.0,  999.0,  999.0,   -7.5,   -6.8,  999.0,   -4.6,   -3.9,   -3.0,  999.0,   -1.6,   -0.7,   -0.6,   -0.8,   -1.1,   -0.5,  999.0,   -0.0,   -0.2,   -0.9,  999.0,   -1.4,   -1.1,  999.0,   -0.3,  999.0,   -0.8,  999.0,   -0.9,  999.0,   -0.7
2001/09/16 20:40,  999.0,   -3.8,   -5.5,   -6.9,   -8.1,  -10.6,  999.0,  -13.2,  -10.5,  999.0,  999.0,  999.0,  999.0,  999.0,  999.0,  -10.4,  -11.9,  -13.0,  -14.0,  -14.5,  -17.0,  999.0,  -16.6,  -15.6,  -15.0,  -13.2,  -12.0,  999.0,  -10.1,   -8.9,   -8.5,   -7.0,  999.0,  999.0,   -3.7,  999.0,   -2.5,   -1.3,   -0.8,   -0.6,   -0.9,  999.0,  999.0,   -0.5,   -0.5,   -0.7,   -0.2,   -0.7,   -0.6,   -0.7,  999.0,   -0.8,   -0.6,   -0.7,  999.0,   -1.0,   -1.0,   -1.1
2001/09/16 20:50,  999.0,   -2.9,   -3.4,   -4.6,   -6.2,   -8.6,   -8.2,  999.0,   -5.9,   -4.6,  999.0,  999.0,   -9.1,  999.0,   -7.1,   -9.5,  -11.2,  -13.2,  -14.3,  -15.8,  -17.1,  -18.9,  999.0,  -14.0,  999.0,  -13.8,  -12.5,  -12.1,  -10.4,   -8.7,   -9.1,   -8.9,   -6.1,  999.0,   -4.5,   -5.7,  999.0,   -3.3,   -1.8,   -1.0,   -0.9,  999.0,   -0.8,   -0.8,  999.0,  999.0,  999.0,  999.0,   -1.1,   -1.0,   -0.7,   -0.3,   -0.3,   -0.5,  999.0,  999.0,   -0.7,  999.0
2001/09/16 21:00,  999.0,   -3.6,   -4.4,   -5.4,   -8.4,  999.0,   -8.8,   -7.9,   -9.5,  999.0,  999.0,  999.0,  999.0,  999.0,  -10.0,  -12.0,  -11.6,  -13.0,  -14.3,  -15.9,  -17.5,  -18.8,  -18.3,  -17.2,  999.0,  999.0,  999.0,  -14.3,  -13.2,  -14.2,  -11.0,   -8.1,   -8.0,   -5.9,   -5.1,   -4.7,   -2.8,   -1.9,   -1.6,   -0.8,  999.0,  999.0,  999.0,   -1.2,  999.0,  999.0,    0.0,   -1.0,   -1.2,   -0.8,   -1.4,   -0.2,   -0.7,   -1.0,   -0.8,   -0.9,   -0.8,   -0.6
2001/09/16 21:10,  999.0,   -4.4,   -3.9,   -5.4,   -7.9,   -9.6,  999.0,  -12.6,   -8.0,  -13.4,  999.0,  999.0,  999.0,  999.0,  999.0,   -9.6,  -11.8,  -13.4,  -14.3,  -16.7,  -19.2,  -18.9,  999.0,  -17.3,  -15.4,  -15.8,  -14.7,  -12.9,  999.0,  -10.7,   -9.8,  999.0,  999.0,   -6.7,   -5.9,  999.0,   -3.0,   -3.8,  999.0,   -1.4,   -1.3,   -0.6,   -0.5,   -0.8,  999.0,   -0.8,   -0.5,  999.0,   -0.6,   -1.2,   -0.5,   -0.7,   -1.2,   -0.3,  999.0,   -0.9,   -0.9,   -0.6
2001/09/16 21:20,  999.0,   -3.6,   -5.3,   -5.7,   -7.1,   -7.2,  999.0,   -7.8,  999.0,  999.0,  999.0,  999.0,  999.0,  999.0,   -9.5,  -10.3,  -11.9,  -13.8,  -15.3,  -16.6,  999.0,  999.0,  -13.9,  -15.0,  -13.2,  -10.6,   -9.5,   -9.2,  999.0,  999.0,   -2.8,   -5.3,  999.0,   -2.7,   -1.9,   -2.0,   -1.4,   -0.9,   -0.7,   -0.8,   -0.7,   -1.1,   -1.0,   -0.6,   -0.6,   -0.6,   -1.0,  999.0,   -0.6,   -0.7,   -1.0,   -0.8,   -1.0,   -0.5,   -1.1,   -1.0,   -0.5,  999.0
2001/09/16 21:30,  999.0,   -4.2,   -6.2,   -6.9,   -8.9,   -9.8,  999.0,   -8.7,   -9.4,  999.0,  999.0,  999.0,  999.0,  999.0,   -9.1,  -10.6,  -11.2,  -12.7,  -12.9,  999.0,  -15.0,  -14.3,  -14.3,  -12.6,  -12.4,  -10.7,   -8.1,   -7.0,   -5.7,   -4.4,   -2.6,   -2.3,   -2.5,   -1.3,   -0.6,   -1.1,  999.0,   -0.9,   -0.6,   -0.9,   -0.1,   -1.1,   -0.9,   -1.2,   -0.8,   -1.1,    0.1,  999.0,   -0.9,   -0.6,  999.0,   -0.7,   -0.4,   -0.9,   -0.0,   -0.7,  999.0,   -0.4
2001/09/16 21:40,  999.0,   -3.7,   -4.9,   -6.7,   -7.5,  999.0,   -8.1,   -7.7,   -8.6,  999.0,  999.0,  999.0,  999.0,  999.0,  999.0,   -9.1,  -10.3,  -12.1,  -14.7,  -16.1,  -18.4,  -17.2,  -16.4,  -14.1,  -13.4,  -11.5,   -8.9,  999.0,   -6.6,   -2.6,   -3.8,  999.0,   -2.9,   -2.2,   -0.5,   -1.0,   -0.2,   -0.3,   -0.4,   -0.9,   -0.7,   -1.1,   -0.9,   -0.8,   -0.7,   -0.9,   -0.7,   -0.7,   -1.2,   -0.9,  999.0,   -0.8,  999.0,   -1.1,   -1.1,   -0.8,   -1.0,   -0.8
2001/09/16 21:50,  999.0,   -4.9,   -5.9,   -6.4,   -7.9,   -9.9,  999.0,   -7.7,   -8.4,   -7.6,  999.0,  999.0,  999.0,  999.0,   -8.5,   -9.7,  -10.7,  -12.3,  -14.8,  -16.3,  -16.6,  -17.0,  -16.1,  -15.4,  -13.1,  -14.3,  999.0,   -9.3,   -8.8,   -6.5,  999.0,   -4.9,   -3.0,   -3.8,   -1.6,   -1.5,   -0.9,  999.0,   -1.1,   -0.7,   -0.7,   -0.8,   -0.7,  999.0,   -0.6,   -1.0,   -0.7,   -0.5,   -1.0,   -0.8,   -0.7,   -0.7,   -0.6,   -0.8,   -0.6,   -0.6,   -0.6,   -0.9
2001/09/16 22:00,  999.0,   -4.7,   -5.4,   -6.3,   -7.4,  999.0,   -7.4,   -7.1,   -2.2,  999.0,  999.0,  999.0,  999.0,  999.0,  999.0,  -21.4,  -16.4,  999.0,  999.0,  -19.0,  -17.5,  -18.1,  -17.0,  999.0,  -14.3,  999.0,  -12.9,  -10.8,  999.0,  999.0,  999.0,  999.0,  999.0,  999.0,  999.0,  999.0,  999.0,  999.0,  999.0,  999.0,  999.0,  999.0,  999.0,  999.0,  999.0,  999.0,  999.0,  999.0,   42.1,   42.0,  999.0,  999.0,  999.0,   41.8,  999.0,   42.2,   41.8,   41.7
2001/09/16 22:10,  999.0,   -9.5,   -5.8,   -6.8,   -8.9,  -19.3,  999.0,  -20.9,  -21.0,  -21.2,  999.0,  -21.6,  -21.2,  999.0,  -21.6,  -21.9,  999.0,  999.0,  -20.3,  -19.8,  -19.2,  -16.7,  -16.2,  -15.9,  -14.8,  -13.8,  999.0,  -12.3,  999.0,  999.0,  999.0,  999.0,  999.0,  999.0,  999.0,  999.0,  999.0,  999.0,  999.0,  999.0,  999.0,  999.0,  999.0,  999.0,  999.0,   41.9,  999.0,   41.8,   41.3,   41.6,   41.6,   41.0,   42.1,   41.6,  999.0,   41.6,   42.2,  999.0
2001/09/16 22:20,  999.0,  999.0,  999.0,  999.0,  999.0,  999.0,  -21.2,  -20.8,  -22.1,  999.0,  999.0,  999.0,  -21.2,  -21.6,  -20.8,  -20.7,  -21.2,  -21.5,  -19.9,  999.0,  999.0,  -18.4,  -19.0,  -17.7,  -18.4,  999.0,  999.0,  999.0,  999.0,  999.0,  999.0,  999.0,  999.0,  999.0,  999.0,  999.0,  999.0,  999.0,  999.0,  999.0,  999.0,  999.0,  999.0,  999.0,  999.0,  999.0,  999.0,  999.0,   42.2,  999.0,   42.2,   41.7,   40.9,   40.8,   41.1,  999.0,   41.3,  999.0
2001/09/16 22:30,  999.0,  999.0,  -21.3,  999.0,  999.0,  -21.7,  999.0,  -21.5,  -20.2,  -20.6,  -20.5,  -22.0,  -21.8,  -21.5,  -21.3,  -21.4,  999.0,  999.0,  -20.3,  -19.5,  -18.7,  -17.0,  -16.0,  -16.1,  999.0,  -13.9,  999.0,  999.0,  999.0,  999.0,  999.0,  999.0,  999.0,  999.0,  999.0,  999.0,  999.0,  999.0,  999.0,  999.0,  999.0,  999.0,  999.0,  999.0,  999.0,   41.9,  999.0,  999.0,   41.7,   41.5,   42.0,   42.0,   41.5,   41.9,   41.8,  999.0,  999.0,   41.5
2001/09/16 22:40,  999.0,  999.0,  -21.3,  999.0,  999.0,  -20.6,  -21.4,  999.0,  999.0,  -20.9,  -20.7,  -21.1,  -20.9,  -21.3,  -21.9,  -21.7,  -20.9,  -19.8,  999.0,  -18.5,  -17.7,  -15.2,  999.0,  -13.7,  -13.2,  -11.7,  -10.7,  999.0,  999.0,  999.0,  999.0,  999.0,  999.0,  999.0,  999.0,  999.0,  999.0,  999.0,  999.0,  999.0,  999.0,  999.0,  999.0,  999.0,  999.0,  999.0,  999.0,   41.5,   41.5,   41.7,   41.6,  999.0,   42.2,   42.0,   41.9,   42.2,   41.9,   42.5
2001/09/16 22:50,  999.0,  -14.9,  999.0,  999.0,  -14.3,  999.0,  -17.0,  -17.5,  -15.4,  -11.6,  -16.9,  -21.8,  -22.4,  -21.3,  -21.2,  -18.8,  999.0,  -19.4,  -18.2,  999.0,  -17.3,  -15.7,  -13.3,  -11.7,  -12.0,  999.0,   -5.8,  -10.0,  -10.0,   -4.7,  999.0,  999.0,  999.0,  999.0,  999.0,  999.0,  999.0,  999.0,  999.0,  999.0,  999.0,  999.0,  999.0,  999.0,  999.0,  999.0,  999.0,   20.1,   13.4,  999.0,  999.0,    9.6,   27.5,   28.0,  999.0,  999.0,   31.4,   42.0
2001/09/16 23:00,  999.0,  -17.3,  -21.1,  -20.6,  -22.0,  -21.2,  -19.9,  -21.4,  999.0,  -20.9,  -21.3,  -21.3,  999.0,  -21.0,  999.0,  -22.0,  -21.3,  999.0,  -19.0,  -17.9,  -19.0,  -13.0,  -12.8,  -12.7,  -12.3,  -11.7,  -10.6,   -7.3,  999.0,  999.0,  999.0,  999.0,  999.0,  999.0,  999.0,  999.0,  999.0,  999.0,  999.0,  999.0,  999.0,  999.0,  999.0,  999.0,  999.0,  999.0,   41.7,  999.0,   41.7,   41.5,  999.0,  999.0,   41.6,   41.7,   41.9,   42.0,   42.9,   42.2
2001/09/16 23:10,  999.0,  -20.0,  -20.9,  999.0,  999.0,  999.0,  999.0,  -20.2,  -21.2,  -20.4,  -20.6,  -20.7,  -21.1,  -21.3,  999.0,  -20.8,  -21.8,  -21.8,  -20.7,  -19.7,  -16.3,  -14.5,  -14.6,  -14.8,  -15.0,  -14.3,  999.0,   -9.4,   -8.3,  999.0,  999.0,  999.0,  999.0,  999.0,  999.0,  999.0,  999.0,  999.0,  999.0,  999.0,  999.0,  999.0,  999.0,  999.0,  999.0,  999.0,   43.0,   41.8,   42.0,   41.9,   41.7,   41.9,   41.8,   41.7,   41.9,   42.1,   42.3,   41.8
2001/09/16 23:20,  999.0,  -20.6,  -20.6,  -18.9,  999.0,  999.0,  -20.7,  -19.8,  999.0,  -20.8,  -21.4,  -22.0,  -21.5,  -21.4,  -21.4,  -20.6,  999.0,  -21.0,  -20.9,  999.0,  999.0,  -15.4,  -16.0,  -16.1,  999.0,  999.0,  999.0,  999.0,  999.0,  999.0,  999.0,  999.0,  999.0,  999.0,  999.0,  999.0,  999.0,  999.0,  999.0,  999.0,  999.0,  999.0,  999.0,   41.5,   41.4,   42.0,  999.0,   42.1,   42.2,   41.7,   42.0,   42.0,   41.8,   42.3,   42.1,   41.7,   41.7,   42.1
2001/09/16 23:30,  999.0,  999.0,  999.0,  999.0,  -21.0,  999.0,  -13.1,  -14.6,  -16.3,  -21.2,  -18.6,  -15.8,  999.0,  -18.9,  -17.9,  -17.1,  999.0,  999.0,  999.0,  999.0,  -15.0,  -14.5,  999.0,  999.0,  999.0,  999.0,  999.0,  999.0,  999.0,  999.0,  999.0,  999.0,  999.0,  999.0,  999.0,  999.0,  999.0,  999.0,  999.0,  999.0,  999.0,  999.0,  999.0,  999.0,   41.5,   41.7,   30.7,   41.6,   42.1,   41.9,   41.8,   27.7,   41.9,   41.8,   42.0,   41.6,   41.3,   41.6
2001/09/16 23:40,  999.0,  -11.6,  -16.3,  999.0,  -19.4,  -20.9,  -20.7,  999.0,  -19.8,  -17.2,  -14.5,  -14.6,  -21.4,  -21.4,  -21.1,  999.0,  -21.1,  -18.4,  -15.0,  999.0,  -12.5,  -13.2,  -12.6,  999.0,  999.0,  999.0,  999.0,  999.0,  999.0,  999.0,  999.0,  999.0,  999.0,    5.7,  999.0,  999.0,  999.0,  999.0,  999.0,  999.0,  999.0,  999.0,  999.0,  999.0,  999.0,  999.0,  999.0,  999.0,  999.0,  999.0,   42.0,  999.0,   41.2,   41.8,   41.7,  999.0,   41.9,  999.0
2001/09/16 23:50,  999.0,  -20.7,  -16.5,  -20.3,  -17.4,  -21.3,  -20.7,  -14.0,  999.0,  -21.2,  -21.1,  -11.9,  -18.6,  -16.0,   -8.1,  -12.7,  -15.5,  -11.1,  -11.9,  -13.2,  -14.2,  -15.9,  -16.1,  999.0,  999.0,  999.0,  999.0,  999.0,  999.0,  999.0,  999.0,  999.0,  999.0,  999.0,  999.0,  999.0,  999.0,  999.0,  999.0,  999.0,  999.0,  999.0,  999.0,  999.0,  999.0,   20.5,   40.2,   41.3,   41.7,   41.4,   27.7,   42.1,   41.9,   41.9,   42.8,   42.3,   42.1,   42.3
